Time,TemperatureF,DewpointF,PressureIn,WindDirection,WindDirectionDegrees,WindSpeedMPH,WindSpeedGustMPH,Humidity,HourlyPrecipIn,Conditions,Clouds,dailyrainin,SoftwareType,DateUTC
2013-02-24 00:01:00,37.8,35.4,30.41,ESE,112,0.0,1.1,91,0.00,,OVC065,0.00,VWS V14.00,2013-02-24 08:01:00,
2013-02-24 00:02:00,37.8,35.4,30.41,ESE,112,0.0,1.1,91,0.00,,OVC065,0.00,VWS V14.00,2013-02-24 08:02:00,
2013-02-24 00:06:00,37.8,35.4,30.41,ESE,112,0.0,0.0,91,0.00,,OVC065,0.00,VWS V14.00,2013-02-24 08:06:00,
2013-02-24 00:07:00,37.8,35.4,30.41,ESE,112,0.0,0.0,91,0.00,,OVC065,0.00,VWS V14.00,2013-02-24 08:07:00,
2013-02-24 00:11:00,37.8,35.4,30.41,ESE,112,0.0,0.0,91,0.00,,OVC065,0.00,VWS V14.00,2013-02-24 08:11:00,
2013-02-24 00:12:00,37.8,35.4,30.41,ESE,112,0.0,0.0,91,0.00,,OVC065,0.00,VWS V14.00,2013-02-24 08:12:00,
2013-02-24 00:16:00,37.8,35.4,30.41,ESE,112,0.0,0.0,91,0.00,,OVC065,0.00,VWS V14.00,2013-02-24 08:16:00,
2013-02-24 00:17:00,37.8,35.4,30.41,ESE,112,0.0,0.0,91,0.00,,OVC065,0.00,VWS V14.00,2013-02-24 08:17:00,
2013-02-24 00:21:00,37.8,35.4,30.41,ESE,112,0.0,0.0,91,0.00,,OVC065,0.00,VWS V14.00,2013-02-24 08:21:00,
2013-02-24 00:22:00,37.8,35.4,30.41,ESE,112,0.0,0.0,91,0.00,,OVC065,0.00,VWS V14.00,2013-02-24 08:22:00,
2013-02-24 00:26:00,37.8,35.4,30.41,East,90,0.0,0.0,91,0.00,,OVC065,0.00,VWS V14.00,2013-02-24 08:26:00,
2013-02-24 00:27:00,37.8,35.4,30.41,East,90,0.0,0.0,91,0.00,,OVC065,0.00,VWS V14.00,2013-02-24 08:27:00,
2013-02-24 00:31:00,37.8,35.4,30.41,East,90,0.0,0.0,91,0.00,,OVC065,0.00,VWS V14.00,2013-02-24 08:31:00,
2013-02-24 00:32:00,37.8,35.4,30.41,East,90,0.0,0.0,91,0.00,,OVC070,0.00,VWS V14.00,2013-02-24 08:32:00,
2013-02-24 00:36:00,37.8,35.4,30.41,East,90,0.0,0.0,91,0.00,,OVC070,0.00,VWS V14.00,2013-02-24 08:36:00,
2013-02-24 00:37:00,37.8,35.4,30.41,East,90,0.0,0.0,91,0.00,,OVC070,0.00,VWS V14.00,2013-02-24 08:37:00,
2013-02-24 00:41:00,37.8,35.4,30.41,East,90,0.0,0.0,91,0.00,,OVC070,0.00,VWS V14.00,2013-02-24 08:41:00,
2013-02-24 00:42:00,37.8,35.4,30.41,East,90,0.0,0.0,91,0.00,,OVC070,0.00,VWS V14.00,2013-02-24 08:42:00,
2013-02-24 00:46:00,37.9,35.5,30.41,East,90,0.0,0.0,91,0.00,,OVC070,0.00,VWS V14.00,2013-02-24 08:46:00,
2013-02-24 00:47:00,37.9,35.5,30.41,East,90,0.0,0.0,91,0.00,,OVC070,0.00,VWS V14.00,2013-02-24 08:47:00,
2013-02-24 00:51:00,37.9,35.8,30.41,East,90,0.0,0.0,92,0.00,,OVC070,0.00,VWS V14.00,2013-02-24 08:51:00,
2013-02-24 00:52:00,37.9,35.8,30.41,East,90,0.0,0.0,92,0.00,,OVC070,0.00,VWS V14.00,2013-02-24 08:52:00,
2013-02-24 00:56:00,37.9,35.8,30.41,East,90,0.0,0.0,92,0.00,,OVC070,0.00,VWS V14.00,2013-02-24 08:56:00,
2013-02-24 00:57:00,37.9,35.8,30.41,East,90,0.0,0.0,92,0.00,,OVC070,0.00,VWS V14.00,2013-02-24 08:57:00,
2013-02-24 01:01:00,37.9,35.8,30.41,East,90,0.0,0.0,92,0.00,,OVC070,0.00,VWS V14.00,2013-02-24 09:01:00,
2013-02-24 01:02:00,37.9,35.8,30.41,East,90,0.0,0.0,92,0.00,,OVC070,0.00,VWS V14.00,2013-02-24 09:02:00,
2013-02-24 01:06:00,37.9,35.8,30.41,East,90,0.0,0.0,92,0.00,,OVC070,0.00,VWS V14.00,2013-02-24 09:06:00,
2013-02-24 01:07:00,37.9,35.8,30.41,ESE,112,0.0,0.0,92,0.00,,OVC070,0.00,VWS V14.00,2013-02-24 09:07:00,
2013-02-24 01:11:00,37.9,35.5,30.41,East,90,0.0,0.0,91,0.00,,OVC070,0.00,VWS V14.00,2013-02-24 09:11:00,
2013-02-24 01:12:00,37.9,35.5,30.41,East,90,0.0,0.0,91,0.00,,OVC070,0.00,VWS V14.00,2013-02-24 09:12:00,
2013-02-24 01:16:00,37.9,35.5,30.41,East,90,2.7,2.7,91,0.00,,OVC070,0.00,VWS V14.00,2013-02-24 09:16:00,
2013-02-24 01:17:00,37.9,35.5,30.41,ENE,68,2.7,2.7,91,0.00,,OVC070,0.00,VWS V14.00,2013-02-24 09:17:00,
2013-02-24 01:21:00,38.1,35.7,30.41,SSW,202,0.0,3.1,91,0.00,,OVC070,0.00,VWS V14.00,2013-02-24 09:21:00,
2013-02-24 01:22:00,38.1,35.5,30.41,SSE,158,0.0,3.1,90,0.00,,OVC070,0.00,VWS V14.00,2013-02-24 09:22:00,
2013-02-24 01:23:00,38.1,35.5,30.41,SSE,158,0.0,3.1,90,0.00,,OVC070,0.00,VWS V14.00,2013-02-24 09:23:00,
2013-02-24 01:26:00,38.3,35.6,30.41,East,90,1.3,3.1,90,0.00,,OVC070,0.00,VWS V14.00,2013-02-24 09:26:00,
2013-02-24 01:27:00,38.3,35.6,30.41,East,90,2.7,3.1,90,0.00,,OVC070,0.00,VWS V14.00,2013-02-24 09:27:00,
2013-02-24 01:28:00,38.3,35.6,30.41,East,90,0.0,3.1,90,0.00,,OVC070,0.00,VWS V14.00,2013-02-24 09:28:00,
2013-02-24 01:31:00,38.3,35.6,30.41,East,90,2.7,3.1,90,0.00,,OVC060,0.00,VWS V14.00,2013-02-24 09:31:00,
2013-02-24 01:32:00,38.3,35.6,30.41,East,90,0.0,3.1,90,0.00,,OVC060,0.00,VWS V14.00,2013-02-24 09:32:00,
2013-02-24 01:33:00,38.1,35.5,30.41,East,90,0.0,3.1,90,0.00,,OVC060,0.00,VWS V14.00,2013-02-24 09:33:00,
2013-02-24 01:36:00,38.1,35.5,30.41,ESE,112,0.0,2.7,90,0.00,,OVC060,0.00,VWS V14.00,2013-02-24 09:36:00,
2013-02-24 01:37:00,38.1,35.5,30.41,ESE,112,0.0,2.7,90,0.00,,OVC060,0.00,VWS V14.00,2013-02-24 09:37:00,
2013-02-24 01:38:00,38.1,35.5,30.41,ESE,112,0.0,2.7,90,0.00,,OVC060,0.00,VWS V14.00,2013-02-24 09:38:00,
2013-02-24 01:41:00,38.1,35.5,30.41,ESE,112,0.0,2.7,90,0.00,,OVC060,0.00,VWS V14.00,2013-02-24 09:41:00,
2013-02-24 01:42:00,38.1,35.5,30.41,ESE,112,0.0,2.7,90,0.00,,OVC060,0.00,VWS V14.00,2013-02-24 09:42:00,
2013-02-24 01:43:00,38.1,35.5,30.41,ESE,112,0.0,2.7,90,0.00,,OVC060,0.00,VWS V14.00,2013-02-24 09:43:00,
2013-02-24 01:46:00,38.1,35.5,30.41,East,90,0.0,2.7,90,0.00,,OVC060,0.00,VWS V14.00,2013-02-24 09:46:00,
2013-02-24 01:47:00,38.1,35.5,30.41,East,90,0.0,2.7,90,0.00,,OVC050,0.00,VWS V14.00,2013-02-24 09:47:00,
2013-02-24 01:48:00,38.1,35.5,30.41,East,90,0.0,2.7,90,0.00,,OVC050,0.00,VWS V14.00,2013-02-24 09:48:00,
2013-02-24 01:51:00,38.1,35.5,30.41,East,90,0.0,0.0,90,0.00,,OVC050,0.00,VWS V14.00,2013-02-24 09:51:00,
2013-02-24 01:52:00,38.1,35.5,30.41,East,90,0.0,0.0,90,0.00,,OVC050,0.00,VWS V14.00,2013-02-24 09:52:00,
2013-02-24 01:53:00,38.1,35.5,30.41,East,90,0.0,0.0,90,0.00,,OVC050,0.00,VWS V14.00,2013-02-24 09:53:00,
2013-02-24 01:56:00,38.1,35.5,30.41,ENE,68,0.0,0.0,90,0.00,,OVC050,0.00,VWS V14.00,2013-02-24 09:56:00,
2013-02-24 01:58:00,38.1,35.5,30.41,East,90,0.0,0.0,90,0.00,,OVC050,0.00,VWS V14.00,2013-02-24 09:58:00,
2013-02-24 02:01:00,38.1,35.5,30.41,NNW,338,0.0,0.0,90,0.00,,OVC050,0.00,VWS V14.00,2013-02-24 10:01:00,
2013-02-24 02:02:00,38.1,35.5,30.41,NE,45,1.3,1.3,90,0.00,,OVC050,0.00,VWS V14.00,2013-02-24 10:02:00,
2013-02-24 02:03:00,38.1,35.5,30.41,NE,45,1.3,1.3,90,0.00,,OVC050,0.00,VWS V14.00,2013-02-24 10:03:00,
2013-02-24 02:06:00,38.1,35.5,30.41,NNW,338,1.1,2.0,90,0.00,,OVC050,0.00,VWS V14.00,2013-02-24 10:06:00,
2013-02-24 02:07:00,38.1,35.5,30.41,NNW,338,1.1,2.0,90,0.00,,OVC050,0.00,VWS V14.00,2013-02-24 10:07:00,
2013-02-24 02:08:00,38.1,35.5,30.41,ENE,68,0.0,2.0,90,0.00,,OVC050,0.00,VWS V14.00,2013-02-24 10:08:00,
2013-02-24 02:11:00,38.1,35.5,30.41,ENE,68,2.9,2.9,90,0.00,,OVC050,0.00,VWS V14.00,2013-02-24 10:11:00,
2013-02-24 02:12:00,38.1,35.5,30.41,ENE,68,2.9,2.9,90,0.00,,OVC050,0.00,VWS V14.00,2013-02-24 10:12:00,
2013-02-24 02:13:00,38.1,35.5,30.41,NE,45,3.1,3.1,90,0.00,,OVC050,0.00,VWS V14.00,2013-02-24 10:13:00,
2013-02-24 02:17:00,38.3,35.3,30.41,ENE,68,0.0,4.3,89,0.00,,OVC050,0.00,VWS V14.00,2013-02-24 10:17:00,
2013-02-24 02:18:00,38.3,35.3,30.44,ENE,68,0.0,4.3,89,0.00,,OVC050,0.00,VWS V14.00,2013-02-24 10:18:00,
2013-02-24 02:22:00,38.1,35.2,30.44,East,90,3.4,4.3,89,0.00,,OVC050,0.00,VWS V14.00,2013-02-24 10:22:00,
2013-02-24 02:23:00,38.3,35.3,30.44,ENE,68,0.0,4.3,89,0.00,,OVC050,0.00,VWS V14.00,2013-02-24 10:23:00,
2013-02-24 02:27:00,38.3,35.3,30.44,NE,45,0.0,4.3,89,0.00,,OVC050,0.00,VWS V14.00,2013-02-24 10:27:00,
2013-02-24 02:28:00,38.3,35.3,30.44,NE,45,0.0,4.3,89,0.00,,OVC050,0.00,VWS V14.00,2013-02-24 10:28:00,
2013-02-24 02:32:00,38.1,35.2,30.41,ENE,68,0.0,3.4,89,0.00,,OVC065,0.00,VWS V14.00,2013-02-24 10:32:00,
2013-02-24 02:33:00,38.1,35.5,30.41,ENE,68,0.0,3.4,90,0.00,,OVC065,0.00,VWS V14.00,2013-02-24 10:33:00,
2013-02-24 02:37:00,38.1,35.5,30.41,ENE,68,0.0,3.4,90,0.00,,OVC065,0.00,VWS V14.00,2013-02-24 10:37:00,
2013-02-24 02:38:00,38.1,35.5,30.41,ENE,68,0.0,3.4,90,0.00,,OVC065,0.00,VWS V14.00,2013-02-24 10:38:00,
2013-02-24 02:42:00,37.9,35.3,30.41,East,90,0.0,0.0,90,0.00,,OVC065,0.00,VWS V14.00,2013-02-24 10:42:00,
2013-02-24 02:43:00,37.9,35.3,30.41,ESE,112,0.0,0.0,90,0.00,,OVC065,0.00,VWS V14.00,2013-02-24 10:43:00,
2013-02-24 02:47:00,38.1,35.5,30.41,ENE,68,0.0,1.1,90,0.00,,OVC070,0.00,VWS V14.00,2013-02-24 10:47:00,
2013-02-24 02:48:00,38.1,35.5,30.41,ENE,68,0.0,1.1,90,0.00,,OVC070,0.00,VWS V14.00,2013-02-24 10:48:00,
2013-02-24 02:52:00,38.1,35.5,30.41,NE,45,3.8,3.8,90,0.00,,OVC070,0.00,VWS V14.00,2013-02-24 10:52:00,
2013-02-24 02:53:00,38.1,35.5,30.41,ESE,112,0.0,3.8,90,0.00,,OVC070,0.00,VWS V14.00,2013-02-24 10:53:00,
2013-02-24 02:57:00,38.1,35.5,30.41,NNE,22,1.3,3.8,90,0.00,,OVC070,0.00,VWS V14.00,2013-02-24 10:57:00,
2013-02-24 02:58:00,38.1,35.2,30.41,NE,45,2.7,3.8,89,0.00,,OVC070,0.00,VWS V14.00,2013-02-24 10:58:00,
2013-02-24 03:02:00,38.1,35.2,30.41,NE,45,0.9,3.8,89,0.00,,OVC070,0.00,VWS V14.00,2013-02-24 11:02:00,
2013-02-24 03:03:00,38.1,35.2,30.41,ESE,112,2.5,3.8,89,0.00,,OVC070,0.00,VWS V14.00,2013-02-24 11:03:00,
2013-02-24 03:07:00,38.1,35.2,30.41,NNE,22,0.0,3.8,89,0.00,,OVC070,0.00,VWS V14.00,2013-02-24 11:07:00,
2013-02-24 03:08:00,38.1,35.2,30.41,ENE,68,2.5,3.8,89,0.00,,OVC070,0.00,VWS V14.00,2013-02-24 11:08:00,
2013-02-24 03:12:00,38.1,35.2,30.41,NE,45,0.0,3.4,89,0.00,,OVC070,0.00,VWS V14.00,2013-02-24 11:12:00,
2013-02-24 03:13:00,38.1,35.2,30.41,ENE,68,1.1,3.4,89,0.00,,OVC070,0.00,VWS V14.00,2013-02-24 11:13:00,
2013-02-24 03:17:00,38.1,35.2,30.41,SW,225,0.0,3.4,89,0.00,,OVC070,0.00,VWS V14.00,2013-02-24 11:17:00,
2013-02-24 03:18:00,38.1,35.2,30.41,SW,225,0.0,3.4,89,0.00,,OVC070,0.00,VWS V14.00,2013-02-24 11:18:00,
2013-02-24 03:22:00,37.9,35.0,30.41,SSE,158,0.0,2.5,89,0.00,,OVC070,0.00,VWS V14.00,2013-02-24 11:22:00,
2013-02-24 03:23:00,37.9,35.0,30.41,SSE,158,0.0,2.5,89,0.00,,OVC070,0.00,VWS V14.00,2013-02-24 11:23:00,
2013-02-24 03:24:00,37.9,35.0,30.41,SSE,158,0.0,2.5,89,0.00,,OVC070,0.00,VWS V14.00,2013-02-24 11:24:00,
2013-02-24 03:27:00,37.9,35.3,30.41,ESE,112,0.0,1.1,90,0.00,,OVC070,0.00,VWS V14.00,2013-02-24 11:27:00,
2013-02-24 03:28:00,37.9,35.3,30.41,ESE,112,0.0,1.1,90,0.00,,OVC070,0.00,VWS V14.00,2013-02-24 11:28:00,
2013-02-24 03:29:00,37.9,35.3,30.41,ESE,112,0.0,1.1,90,0.00,,OVC070,0.00,VWS V14.00,2013-02-24 11:29:00,
2013-02-24 03:32:00,37.9,35.3,30.41,ESE,112,0.0,0.0,90,0.00,,OVC075,0.00,VWS V14.00,2013-02-24 11:32:00,
2013-02-24 03:33:00,37.9,35.3,30.41,ESE,112,0.0,0.0,90,0.00,,OVC075,0.00,VWS V14.00,2013-02-24 11:33:00,
2013-02-24 03:37:00,37.9,35.3,30.41,ESE,112,0.0,0.0,90,0.00,,OVC075,0.00,VWS V14.00,2013-02-24 11:37:00,
2013-02-24 03:38:00,37.9,35.3,30.41,East,90,0.0,0.0,90,0.00,,OVC075,0.00,VWS V14.00,2013-02-24 11:38:00,
2013-02-24 03:39:00,37.9,35.3,30.41,East,90,0.0,0.0,90,0.00,,OVC075,0.00,VWS V14.00,2013-02-24 11:39:00,
2013-02-24 03:42:00,37.9,35.3,30.41,East,90,0.0,0.0,90,0.00,,OVC075,0.00,VWS V14.00,2013-02-24 11:42:00,
2013-02-24 03:43:00,37.9,35.3,30.41,East,90,0.0,0.0,90,0.00,,OVC075,0.00,VWS V14.00,2013-02-24 11:43:00,
2013-02-24 03:44:00,37.9,35.3,30.41,East,90,0.0,0.0,90,0.00,,OVC075,0.00,VWS V14.00,2013-02-24 11:44:00,
2013-02-24 03:47:00,37.9,35.3,30.41,ESE,112,0.0,0.0,90,0.00,,OVC065,0.00,VWS V14.00,2013-02-24 11:47:00,
2013-02-24 03:48:00,37.9,35.3,30.41,ESE,112,0.0,0.0,90,0.00,,OVC065,0.00,VWS V14.00,2013-02-24 11:48:00,
2013-02-24 03:49:00,37.9,35.3,30.41,ESE,112,0.0,0.0,90,0.00,,OVC065,0.00,VWS V14.00,2013-02-24 11:49:00,
2013-02-24 03:52:00,37.9,35.5,30.41,SE,135,0.0,0.0,91,0.00,,OVC065,0.00,VWS V14.00,2013-02-24 11:52:00,
2013-02-24 03:53:00,37.9,35.5,30.41,ESE,112,0.0,0.0,91,0.00,,OVC065,0.00,VWS V14.00,2013-02-24 11:53:00,
2013-02-24 03:54:00,37.9,35.5,30.41,ESE,112,0.0,0.0,91,0.00,,OVC065,0.00,VWS V14.00,2013-02-24 11:54:00,
2013-02-24 03:57:00,37.9,35.5,30.41,ESE,112,0.0,0.0,91,0.00,,OVC065,0.00,VWS V14.00,2013-02-24 11:57:00,
2013-02-24 03:58:00,37.9,35.5,30.41,ESE,112,0.0,0.0,91,0.00,,OVC065,0.00,VWS V14.00,2013-02-24 11:58:00,
2013-02-24 03:59:00,37.9,35.5,30.41,SE,135,0.0,0.0,91,0.00,,OVC065,0.00,VWS V14.00,2013-02-24 11:59:00,
2013-02-24 04:02:00,37.9,35.5,30.41,East,90,0.0,0.0,91,0.00,,OVC065,0.00,VWS V14.00,2013-02-24 12:02:00,
2013-02-24 04:03:00,37.9,35.5,30.41,East,90,0.0,0.0,91,0.00,,OVC065,0.00,VWS V14.00,2013-02-24 12:03:00,
2013-02-24 04:04:00,37.9,35.5,30.41,East,90,0.0,0.0,91,0.00,,OVC065,0.00,VWS V14.00,2013-02-24 12:04:00,
2013-02-24 04:08:00,37.9,35.5,30.41,East,90,0.0,0.0,91,0.00,,OVC065,0.00,VWS V14.00,2013-02-24 12:08:00,
2013-02-24 04:09:00,37.9,35.5,30.41,East,90,0.0,0.0,91,0.00,,OVC065,0.00,VWS V14.00,2013-02-24 12:09:00,
2013-02-24 04:13:00,37.9,35.5,30.41,East,90,0.0,0.0,91,0.00,,OVC065,0.00,VWS V14.00,2013-02-24 12:13:00,
2013-02-24 04:14:00,37.9,35.5,30.41,East,90,0.0,0.0,91,0.00,,OVC065,0.00,VWS V14.00,2013-02-24 12:14:00,
2013-02-24 04:18:00,37.9,35.5,30.41,East,90,0.0,0.0,91,0.00,,OVC065,0.00,VWS V14.00,2013-02-24 12:18:00,
2013-02-24 04:19:00,37.9,35.5,30.41,East,90,0.0,0.0,91,0.00,,OVC065,0.00,VWS V14.00,2013-02-24 12:19:00,
2013-02-24 04:23:00,37.9,35.5,30.41,East,90,0.0,0.0,91,0.00,,OVC065,0.00,VWS V14.00,2013-02-24 12:23:00,
2013-02-24 04:24:00,37.9,35.5,30.41,East,90,0.0,0.0,91,0.00,,OVC065,0.00,VWS V14.00,2013-02-24 12:24:00,
2013-02-24 04:28:00,37.9,35.5,30.41,ESE,112,0.0,0.0,91,0.00,,OVC065,0.00,VWS V14.00,2013-02-24 12:28:00,
2013-02-24 04:29:00,37.9,35.5,30.41,ESE,112,0.0,0.0,91,0.00,,OVC065,0.00,VWS V14.00,2013-02-24 12:29:00,
2013-02-24 04:33:00,37.8,35.4,30.41,ESE,112,0.0,0.0,91,0.00,,OVC065,0.00,VWS V14.00,2013-02-24 12:33:00,
2013-02-24 04:34:00,37.9,35.5,30.41,East,90,0.0,0.0,91,0.00,,OVC065,0.00,VWS V14.00,2013-02-24 12:34:00,
2013-02-24 04:35:00,37.9,35.5,30.41,East,90,0.0,0.0,91,0.00,,OVC065,0.00,VWS V14.00,2013-02-24 12:35:00,
2013-02-24 04:38:00,37.9,35.5,30.41,East,90,0.0,0.0,91,0.00,,OVC065,0.00,VWS V14.00,2013-02-24 12:38:00,
2013-02-24 04:40:00,37.9,35.5,30.41,East,90,0.0,0.0,91,0.00,,OVC065,0.00,VWS V14.00,2013-02-24 12:40:00,
2013-02-24 04:43:00,37.9,35.5,30.41,East,90,0.0,0.0,91,0.00,,OVC065,0.00,VWS V14.00,2013-02-24 12:43:00,
2013-02-24 04:45:00,37.8,35.4,30.41,East,90,0.0,0.0,91,0.00,,OVC065,0.00,VWS V14.00,2013-02-24 12:45:00,
2013-02-24 04:48:00,37.8,35.4,30.41,ESE,112,0.0,0.0,91,0.00,,OVC065,0.00,VWS V14.00,2013-02-24 12:48:00,
2013-02-24 04:50:00,37.8,35.4,30.41,ESE,112,0.0,0.0,91,0.00,,OVC065,0.00,VWS V14.00,2013-02-24 12:50:00,
2013-02-24 04:53:00,37.8,35.4,30.41,ESE,112,0.0,0.0,91,0.00,,OVC065,0.00,VWS V14.00,2013-02-24 12:53:00,
2013-02-24 04:55:00,37.8,35.4,30.41,ESE,112,0.0,0.0,91,0.00,,OVC065,0.00,VWS V14.00,2013-02-24 12:55:00,
2013-02-24 04:58:00,37.8,35.4,30.41,ESE,112,0.0,0.0,91,0.00,,OVC065,0.00,VWS V14.00,2013-02-24 12:58:00,
2013-02-24 05:00:00,37.8,35.4,30.41,ESE,112,0.0,0.0,91,0.00,,OVC065,0.00,VWS V14.00,2013-02-24 13:00:00,
2013-02-24 05:03:00,37.8,35.4,30.41,ESE,112,0.0,0.0,91,0.00,,OVC065,0.00,VWS V14.00,2013-02-24 13:03:00,
2013-02-24 05:05:00,37.8,35.4,30.41,East,90,0.0,0.0,91,0.00,,OVC065,0.00,VWS V14.00,2013-02-24 13:05:00,
2013-02-24 05:08:00,37.8,35.4,30.41,East,90,0.0,0.0,91,0.00,,OVC065,0.00,VWS V14.00,2013-02-24 13:08:00,
2013-02-24 05:10:00,37.6,35.2,30.41,East,90,0.0,0.0,91,0.00,,OVC065,0.00,VWS V14.00,2013-02-24 13:10:00,
2013-02-24 05:13:00,37.8,35.4,30.41,East,90,0.0,3.1,91,0.00,,OVC065,0.00,VWS V14.00,2013-02-24 13:13:00,
2013-02-24 05:15:00,37.8,35.4,30.41,WNW,292,1.1,3.1,91,0.00,,OVC065,0.00,VWS V14.00,2013-02-24 13:15:00,
2013-02-24 05:18:00,37.8,35.4,30.41,East,90,4.0,4.0,91,0.00,,OVC065,0.00,VWS V14.00,2013-02-24 13:18:00,
2013-02-24 05:20:00,37.9,35.5,30.41,East,90,4.0,4.0,91,0.00,,OVC065,0.00,VWS V14.00,2013-02-24 13:20:00,
2013-02-24 05:23:00,37.9,35.5,30.41,NNE,22,2.5,4.0,91,0.00,,OVC065,0.00,VWS V14.00,2013-02-24 13:23:00,
2013-02-24 05:25:00,37.9,35.5,30.41,East,90,6.0,6.0,91,0.00,,OVC065,0.00,VWS V14.00,2013-02-24 13:25:00,
2013-02-24 05:28:00,37.9,35.3,30.41,East,90,1.6,6.0,90,0.00,,OVC065,0.00,VWS V14.00,2013-02-24 13:28:00,
2013-02-24 05:30:00,37.9,35.3,30.41,ESE,112,4.0,6.0,90,0.00,,OVC065,0.00,VWS V14.00,2013-02-24 13:30:00,
2013-02-24 05:33:00,37.9,35.3,30.41,NNW,338,1.1,6.0,90,0.00,,OVC075,0.00,VWS V14.00,2013-02-24 13:33:00,
2013-02-24 05:34:00,37.9,35.3,30.41,NNW,338,1.1,6.0,90,0.00,,OVC075,0.00,VWS V14.00,2013-02-24 13:34:00,
2013-02-24 05:35:00,37.9,35.3,30.41,NNE,22,1.1,6.0,90,0.00,,OVC075,0.00,VWS V14.00,2013-02-24 13:35:00,
2013-02-24 05:38:00,37.9,35.3,30.41,NNW,338,1.6,4.0,90,0.00,,OVC075,0.00,VWS V14.00,2013-02-24 13:38:00,
2013-02-24 05:39:00,37.9,35.3,30.41,NNW,338,1.6,4.0,90,0.00,,OVC075,0.00,VWS V14.00,2013-02-24 13:39:00,
2013-02-24 05:40:00,37.9,35.3,30.41,NNE,22,0.9,3.8,90,0.00,,OVC075,0.00,VWS V14.00,2013-02-24 13:40:00,
2013-02-24 05:41:00,37.9,35.3,30.41,NNE,22,0.9,3.8,90,0.00,,OVC075,0.00,VWS V14.00,2013-02-24 13:41:00,
2013-02-24 05:43:00,37.9,35.3,30.41,East,90,2.2,4.0,90,0.00,,OVC075,0.00,VWS V14.00,2013-02-24 13:43:00,
2013-02-24 05:44:00,37.9,35.3,30.41,NE,45,2.5,4.0,90,0.00,,OVC075,0.00,VWS V14.00,2013-02-24 13:44:00,
2013-02-24 05:46:00,37.9,35.3,30.41,ENE,68,1.3,3.1,90,0.00,,OVC075,0.00,VWS V14.00,2013-02-24 13:46:00,
2013-02-24 05:48:00,37.8,35.1,30.41,ENE,68,3.1,3.1,90,0.00,,OVC075,0.00,VWS V14.00,2013-02-24 13:48:00,
2013-02-24 05:49:00,37.8,35.1,30.41,East,90,3.1,3.1,90,0.00,,OVC075,0.00,VWS V14.00,2013-02-24 13:49:00,
2013-02-24 05:51:00,37.8,35.1,30.41,SE,135,2.9,3.1,90,0.00,,OVC075,0.00,VWS V14.00,2013-02-24 13:51:00,
2013-02-24 05:53:00,37.8,35.1,30.41,ESE,112,1.1,3.1,90,0.00,,OVC075,0.00,VWS V14.00,2013-02-24 13:53:00,
2013-02-24 05:54:00,37.8,35.1,30.41,NE,45,1.6,3.1,90,0.00,,OVC075,0.00,VWS V14.00,2013-02-24 13:54:00,
2013-02-24 05:56:00,37.8,35.1,30.41,NE,45,4.0,4.0,90,0.00,,OVC075,0.00,VWS V14.00,2013-02-24 13:56:00,
2013-02-24 05:58:00,37.8,35.1,30.41,NE,45,2.5,4.0,90,0.00,,OVC055,0.00,VWS V14.00,2013-02-24 13:58:00,
2013-02-24 05:59:00,37.8,35.1,30.41,NE,45,2.5,4.0,90,0.00,,OVC055,0.00,VWS V14.00,2013-02-24 13:59:00,
2013-02-24 06:01:00,37.8,35.1,30.41,NW,315,0.9,4.0,90,0.00,,OVC055,0.00,VWS V14.00,2013-02-24 14:01:00,
2013-02-24 06:03:00,37.8,35.1,30.41,NNE,22,2.5,4.0,90,0.00,,OVC055,0.00,VWS V14.00,2013-02-24 14:03:00,
2013-02-24 06:04:00,37.8,35.1,30.41,NE,45,2.7,4.0,90,0.00,,OVC075,0.00,VWS V14.00,2013-02-24 14:04:00,
2013-02-24 06:06:00,37.6,34.9,30.41,East,90,3.1,4.0,90,0.00,,OVC055,0.00,VWS V14.00,2013-02-24 14:06:00,
2013-02-24 06:08:00,37.6,34.9,30.41,ENE,68,3.6,4.0,90,0.00,,OVC055,0.00,VWS V14.00,2013-02-24 14:08:00,
2013-02-24 06:09:00,37.6,34.9,30.41,NNE,22,2.5,4.0,90,0.00,,OVC055,0.00,VWS V14.00,2013-02-24 14:09:00,
2013-02-24 06:11:00,37.6,34.9,30.41,ESE,112,0.9,4.0,90,0.00,,OVC055,0.00,VWS V14.00,2013-02-24 14:11:00,
2013-02-24 06:13:00,37.6,34.9,30.41,ENE,68,2.5,4.0,90,0.00,,OVC055,0.00,VWS V14.00,2013-02-24 14:13:00,
2013-02-24 06:14:00,37.6,34.9,30.41,WNW,292,2.5,4.0,90,0.00,,OVC055,0.00,VWS V14.00,2013-02-24 14:14:00,
2013-02-24 06:16:00,37.6,34.9,30.41,East,90,0.0,3.6,90,0.00,,OVC075,0.00,VWS V14.00,2013-02-24 14:16:00,
2013-02-24 06:18:00,37.6,34.9,30.41,ENE,68,1.6,3.6,90,0.00,,OVC055,0.00,VWS V14.00,2013-02-24 14:18:00,
2013-02-24 06:19:00,37.6,34.9,30.41,NE,45,0.0,3.6,90,0.00,,OVC055,0.00,VWS V14.00,2013-02-24 14:19:00,
2013-02-24 06:21:00,37.6,34.9,30.41,NE,45,1.1,3.6,90,0.00,,OVC055,0.00,VWS V14.00,2013-02-24 14:21:00,
2013-02-24 06:23:00,37.6,34.9,30.41,NNE,22,0.0,3.6,90,0.00,,OVC055,0.00,VWS V14.00,2013-02-24 14:23:00,
2013-02-24 06:24:00,37.6,34.9,30.41,NNE,22,0.0,3.6,90,0.00,,OVC055,0.00,VWS V14.00,2013-02-24 14:24:00,
2013-02-24 06:26:00,37.6,34.9,30.41,ENE,68,0.0,2.9,90,0.00,,OVC055,0.00,VWS V14.00,2013-02-24 14:26:00,
2013-02-24 06:28:00,37.6,34.9,30.41,East,90,2.0,2.9,90,0.00,,OVC055,0.00,VWS V14.00,2013-02-24 14:28:00,
2013-02-24 06:29:00,37.6,34.9,30.41,WNW,292,2.2,2.9,90,0.00,,OVC055,0.00,VWS V14.00,2013-02-24 14:29:00,
2013-02-24 06:31:00,37.6,34.9,30.41,WNW,292,1.3,2.9,90,0.00,,OVC055,0.00,VWS V14.00,2013-02-24 14:31:00,
2013-02-24 06:33:00,37.6,34.9,30.41,NE,45,0.0,2.9,90,0.00,,OVC050,0.00,VWS V14.00,2013-02-24 14:33:00,
2013-02-24 06:34:00,37.6,34.9,30.41,North,0,0.0,2.9,90,0.00,,OVC050,0.00,VWS V14.00,2013-02-24 14:34:00,
2013-02-24 06:36:00,37.6,34.9,30.41,NNW,338,0.0,2.5,90,0.00,,OVC050,0.00,VWS V14.00,2013-02-24 14:36:00,
2013-02-24 06:38:00,37.6,34.9,30.41,WNW,292,0.0,2.5,90,0.00,,OVC050,0.00,VWS V14.00,2013-02-24 14:38:00,
2013-02-24 06:39:00,37.6,34.9,30.41,North,0,0.0,2.2,90,0.00,,OVC050,0.00,VWS V14.00,2013-02-24 14:39:00,
2013-02-24 06:41:00,37.6,34.9,30.41,East,90,1.3,2.9,90,0.00,,OVC050,0.00,VWS V14.00,2013-02-24 14:41:00,
2013-02-24 06:43:00,37.6,34.9,30.41,NE,45,0.0,2.9,90,0.00,,OVC050,0.00,VWS V14.00,2013-02-24 14:43:00,
2013-02-24 06:44:00,37.6,34.9,30.41,ESE,112,0.0,2.9,90,0.00,,OVC050,0.00,VWS V14.00,2013-02-24 14:44:00,
2013-02-24 06:46:00,37.6,34.9,30.41,East,90,0.0,2.9,90,0.00,,OVC050,0.00,VWS V14.00,2013-02-24 14:46:00,
2013-02-24 06:47:00,37.6,34.9,30.39,NNW,338,0.0,2.9,90,0.00,,OVC055,0.00,VWS V14.00,2013-02-24 14:47:00,
2013-02-24 06:48:00,37.6,34.9,30.39,East,90,2.9,2.9,90,0.00,,OVC050,0.00,VWS V14.00,2013-02-24 14:48:00,
2013-02-24 06:49:00,37.6,34.9,30.39,NE,45,0.0,2.9,90,0.00,,OVC050,0.00,VWS V14.00,2013-02-24 14:49:00,
2013-02-24 06:52:00,37.6,34.9,30.39,ENE,68,1.1,2.9,90,0.00,,OVC050,0.00,VWS V14.00,2013-02-24 14:52:00,
2013-02-24 06:53:00,37.6,35.2,30.39,WNW,292,1.1,2.9,91,0.00,,OVC050,0.00,VWS V14.00,2013-02-24 14:53:00,
2013-02-24 06:54:00,37.6,35.2,30.39,WNW,292,0.0,2.9,91,0.00,,OVC050,0.00,VWS V14.00,2013-02-24 14:54:00,
2013-02-24 06:57:00,37.6,35.2,30.39,WNW,292,0.0,2.9,91,0.00,,OVC050,0.00,VWS V14.00,2013-02-24 14:57:00,
2013-02-24 06:58:00,37.6,35.2,30.39,NNW,338,0.0,2.9,91,0.00,,OVC050,0.00,VWS V14.00,2013-02-24 14:58:00,
2013-02-24 07:00:00,37.6,35.2,30.39,NW,315,0.0,2.9,91,0.00,,OVC050,0.00,VWS V14.00,2013-02-24 15:00:00,
2013-02-24 07:02:00,37.6,35.2,30.39,WNW,292,0.0,2.9,91,0.00,,OVC050,0.00,VWS V14.00,2013-02-24 15:02:00,
2013-02-24 07:03:00,37.6,35.2,30.39,NNW,338,0.0,2.9,91,0.00,,OVC050,0.00,VWS V14.00,2013-02-24 15:03:00,
2013-02-24 07:05:00,37.6,35.2,30.39,NNW,338,2.7,2.7,91,0.00,,OVC050,0.00,VWS V14.00,2013-02-24 15:05:00,
2013-02-24 07:07:00,37.6,35.2,30.39,ENE,68,0.0,2.7,91,0.00,,OVC050,0.00,VWS V14.00,2013-02-24 15:07:00,
2013-02-24 07:08:00,37.6,35.2,30.39,NE,45,0.0,2.7,91,0.00,,OVC050,0.00,VWS V14.00,2013-02-24 15:08:00,
2013-02-24 07:10:00,37.6,35.2,30.39,West,270,0.0,2.7,91,0.00,,OVC050,0.00,VWS V14.00,2013-02-24 15:10:00,
2013-02-24 07:12:00,37.6,35.2,30.39,SW,225,0.0,2.7,91,0.00,,OVC050,0.00,VWS V14.00,2013-02-24 15:12:00,
2013-02-24 07:13:00,37.6,35.2,30.39,NNW,338,0.0,2.7,91,0.00,,OVC050,0.00,VWS V14.00,2013-02-24 15:13:00,
2013-02-24 07:15:00,37.6,35.2,30.39,NNE,22,0.0,2.7,91,0.00,,OVC050,0.00,VWS V14.00,2013-02-24 15:15:00,
2013-02-24 07:17:00,37.6,35.2,30.39,NNE,22,0.0,2.7,91,0.00,,OVC050,0.00,VWS V14.00,2013-02-24 15:17:00,
2013-02-24 07:18:00,37.6,35.2,30.39,NNW,338,0.0,2.7,91,0.00,,OVC050,0.00,VWS V14.00,2013-02-24 15:18:00,
2013-02-24 07:21:00,37.6,35.2,30.39,NNW,338,0.0,2.7,91,0.00,,OVC050,0.00,VWS V14.00,2013-02-24 15:21:00,
2013-02-24 07:22:00,37.6,35.2,30.39,NNW,338,0.0,2.7,91,0.00,,OVC050,0.00,VWS V14.00,2013-02-24 15:22:00,
2013-02-24 07:23:00,37.6,35.2,30.39,NNE,22,1.6,2.7,91,0.00,,OVC050,0.00,VWS V14.00,2013-02-24 15:23:00,
2013-02-24 07:26:00,37.6,35.2,30.39,NNW,338,0.0,2.0,91,0.00,,OVC050,0.00,VWS V14.00,2013-02-24 15:26:00,
2013-02-24 07:27:00,37.8,35.4,30.39,WNW,292,1.1,2.0,91,0.00,,OVC050,0.00,VWS V14.00,2013-02-24 15:27:00,
2013-02-24 07:28:00,37.8,35.4,30.39,NNW,338,1.1,2.0,91,0.00,,OVC050,0.00,VWS V14.00,2013-02-24 15:28:00,
2013-02-24 07:31:00,37.9,35.5,30.39,NE,45,1.3,2.0,91,0.00,,OVC050,0.00,VWS V14.00,2013-02-24 15:31:00,
2013-02-24 07:32:00,37.9,35.5,30.39,NE,45,0.0,2.0,91,0.00,,OVC046,0.00,VWS V14.00,2013-02-24 15:32:00,
2013-02-24 07:33:00,37.9,35.5,30.39,NNW,338,1.3,2.0,91,0.00,,OVC046,0.00,VWS V14.00,2013-02-24 15:33:00,
2013-02-24 07:36:00,37.9,35.5,30.39,NNE,22,1.6,3.4,91,0.00,,OVC046,0.00,VWS V14.00,2013-02-24 15:36:00,
2013-02-24 07:37:00,37.9,35.5,30.39,NE,45,0.0,3.4,91,0.00,,OVC046,0.00,VWS V14.00,2013-02-24 15:37:00,
2013-02-24 07:38:00,37.9,35.5,30.39,East,90,0.0,3.4,91,0.00,,OVC046,0.00,VWS V14.00,2013-02-24 15:38:00,
2013-02-24 07:41:00,37.9,35.5,30.39,WNW,292,0.0,3.4,91,0.00,,OVC046,0.00,VWS V14.00,2013-02-24 15:41:00,
2013-02-24 07:42:00,38.1,35.5,30.39,East,90,0.9,3.4,90,0.00,,OVC046,0.00,VWS V14.00,2013-02-24 15:42:00,
2013-02-24 07:43:00,38.1,35.5,30.39,NNW,338,0.0,3.4,90,0.00,,OVC046,0.00,VWS V14.00,2013-02-24 15:43:00,
2013-02-24 07:46:00,38.1,35.5,30.39,WNW,292,1.1,3.4,90,0.00,,OVC046,0.00,VWS V14.00,2013-02-24 15:46:00,
2013-02-24 07:47:00,38.1,35.5,30.39,NE,45,1.6,3.4,90,0.00,,OVC046,0.00,VWS V14.00,2013-02-24 15:47:00,
2013-02-24 07:48:00,38.1,35.5,30.39,ENE,68,1.1,3.4,90,0.00,,OVC046,0.00,VWS V14.00,2013-02-24 15:48:00,
2013-02-24 07:51:00,38.1,35.5,30.39,NNW,338,2.9,3.4,90,0.00,,OVC046,0.00,VWS V14.00,2013-02-24 15:51:00,
2013-02-24 07:52:00,38.1,35.5,30.39,North,0,0.0,3.4,90,0.00,,OVC046,0.00,VWS V14.00,2013-02-24 15:52:00,
2013-02-24 07:53:00,38.1,35.5,30.39,NNE,22,1.3,3.4,90,0.00,,OVC046,0.00,VWS V14.00,2013-02-24 15:53:00,
2013-02-24 07:56:00,38.1,35.5,30.39,WNW,292,0.9,2.9,90,0.00,,OVC046,0.00,VWS V14.00,2013-02-24 15:56:00,
2013-02-24 07:57:00,38.1,35.5,30.39,NNE,22,0.0,2.9,90,0.00,,OVC046,0.00,VWS V14.00,2013-02-24 15:57:00,
2013-02-24 07:58:00,38.1,35.5,30.39,ENE,68,2.5,2.9,90,0.00,,OVC046,0.00,VWS V14.00,2013-02-24 15:58:00,
2013-02-24 08:01:00,38.1,35.5,30.39,East,90,2.5,2.9,90,0.00,,OVC046,0.00,VWS V14.00,2013-02-24 16:01:00,
2013-02-24 08:02:00,38.1,35.5,30.39,ENE,68,2.9,2.9,90,0.00,,OVC046,0.00,VWS V14.00,2013-02-24 16:02:00,
2013-02-24 08:04:00,38.1,35.5,30.39,ENE,68,2.9,2.9,90,0.00,,OVC046,0.00,VWS V14.00,2013-02-24 16:04:00,
2013-02-24 08:06:00,38.1,35.5,30.39,NNE,22,1.1,2.9,90,0.00,,OVC046,0.00,VWS V14.00,2013-02-24 16:06:00,
2013-02-24 08:07:00,38.3,35.6,30.39,NNW,338,1.3,2.9,90,0.00,,OVC046,0.00,VWS V14.00,2013-02-24 16:07:00,
2013-02-24 08:09:00,38.3,35.6,30.39,NNW,338,1.6,2.9,90,0.00,,OVC046,0.00,VWS V14.00,2013-02-24 16:09:00,
2013-02-24 08:11:00,38.3,35.6,30.39,North,0,2.5,2.9,90,0.00,,OVC046,0.00,VWS V14.00,2013-02-24 16:11:00,
2013-02-24 08:12:00,38.3,35.6,30.39,North,0,2.5,2.9,90,0.00,,OVC046,0.00,VWS V14.00,2013-02-24 16:12:00,
2013-02-24 08:13:00,38.3,35.6,30.39,NNW,338,0.9,2.9,90,0.00,,OVC046,0.00,VWS V14.00,2013-02-24 16:13:00,
2013-02-24 08:14:00,38.3,35.6,30.39,NW,315,2.0,2.9,90,0.00,,OVC046,0.00,VWS V14.00,2013-02-24 16:14:00,
2013-02-24 08:16:00,38.3,35.6,30.39,ESE,112,3.4,3.4,90,0.00,,OVC046,0.00,VWS V14.00,2013-02-24 16:16:00,
2013-02-24 08:17:00,38.5,35.8,30.39,East,90,2.0,4.3,90,0.00,,OVC046,0.00,VWS V14.00,2013-02-24 16:17:00,
2013-02-24 08:18:00,38.5,35.8,30.39,East,90,2.0,4.3,90,0.00,,OVC046,0.00,VWS V14.00,2013-02-24 16:18:00,
2013-02-24 08:19:00,38.5,35.8,30.39,ENE,68,2.0,4.3,90,0.00,,OVC046,0.00,VWS V14.00,2013-02-24 16:19:00,
2013-02-24 08:21:00,38.5,35.8,30.39,ENE,68,3.4,4.3,90,0.00,,OVC046,0.00,VWS V14.00,2013-02-24 16:21:00,
2013-02-24 08:22:00,38.5,35.8,30.39,NE,45,1.1,4.3,90,0.00,,OVC046,0.00,VWS V14.00,2013-02-24 16:22:00,
2013-02-24 08:23:00,38.5,35.8,30.39,NE,45,1.1,4.3,90,0.00,,OVC046,0.00,VWS V14.00,2013-02-24 16:23:00,
2013-02-24 08:24:00,38.5,35.8,30.39,ENE,68,6.3,6.3,90,0.00,,OVC046,0.00,VWS V14.00,2013-02-24 16:24:00,
2013-02-24 08:26:00,38.5,35.8,30.39,NNW,338,1.1,6.3,90,0.00,,OVC046,0.00,VWS V14.00,2013-02-24 16:26:00,
2013-02-24 08:27:00,38.5,35.8,30.39,ENE,68,0.9,6.3,90,0.00,,OVC046,0.00,VWS V14.00,2013-02-24 16:27:00,
2013-02-24 08:28:00,38.5,35.8,30.39,ENE,68,1.6,6.3,90,0.00,,OVC046,0.00,VWS V14.00,2013-02-24 16:28:00,
2013-02-24 08:29:00,38.5,35.8,30.39,NNW,338,2.7,6.3,90,0.00,,OVC046,0.00,VWS V14.00,2013-02-24 16:29:00,
2013-02-24 08:31:00,38.7,36.0,30.39,NE,45,0.0,6.3,90,0.00,,OVC046,0.00,VWS V14.00,2013-02-24 16:31:00,
2013-02-24 08:32:00,38.7,36.0,30.39,NE,45,2.0,6.3,90,0.00,,OVC046,0.00,VWS V14.00,2013-02-24 16:32:00,
2013-02-24 08:33:00,38.7,36.0,30.39,NE,45,2.0,6.3,90,0.00,,OVC046,0.00,VWS V14.00,2013-02-24 16:33:00,
2013-02-24 08:34:00,38.7,36.0,30.39,North,0,0.0,6.3,90,0.00,,OVC046,0.00,VWS V14.00,2013-02-24 16:34:00,
2013-02-24 08:36:00,38.8,36.2,30.39,NE,45,0.0,6.3,90,0.00,,OVC046,0.00,VWS V14.00,2013-02-24 16:36:00,
2013-02-24 08:37:00,38.8,36.2,30.39,NE,45,0.0,6.3,90,0.00,,OVC046,0.00,VWS V14.00,2013-02-24 16:37:00,
2013-02-24 08:38:00,38.8,36.2,30.39,East,90,0.0,6.3,90,0.00,,OVC046,0.00,VWS V14.00,2013-02-24 16:38:00,
2013-02-24 08:39:00,38.8,36.2,30.39,NNE,22,0.0,6.3,90,0.00,,OVC046,0.00,VWS V14.00,2013-02-24 16:39:00,
2013-02-24 08:41:00,39.0,36.3,30.39,ENE,68,2.7,2.7,90,0.00,,OVC046,0.00,VWS V14.00,2013-02-24 16:41:00,
2013-02-24 08:42:00,39.0,36.3,30.39,NNE,22,0.0,2.7,90,0.00,,OVC046,0.00,VWS V14.00,2013-02-24 16:42:00,
2013-02-24 08:43:00,39.0,36.3,30.39,NNE,22,0.0,2.7,90,0.00,,OVC046,0.00,VWS V14.00,2013-02-24 16:43:00,
2013-02-24 08:44:00,39.2,36.2,30.39,NNW,338,2.2,2.7,89,0.00,,OVC046,0.00,VWS V14.00,2013-02-24 16:44:00,
2013-02-24 08:46:00,39.2,36.2,30.39,NE,45,2.2,2.7,89,0.00,,OVC046,0.00,VWS V14.00,2013-02-24 16:46:00,
2013-02-24 08:48:00,39.2,36.2,30.39,NNE,22,0.0,2.7,89,0.00,,OVC046,0.00,VWS V14.00,2013-02-24 16:48:00,
2013-02-24 08:49:00,39.2,36.2,30.39,NNE,22,2.7,2.7,89,0.00,,OVC075,0.00,VWS V14.00,2013-02-24 16:49:00,
2013-02-24 08:51:00,39.4,36.4,30.39,ENE,68,1.6,2.7,89,0.00,,OVC075,0.00,VWS V14.00,2013-02-24 16:51:00,
2013-02-24 08:53:00,39.4,36.4,30.39,WNW,292,0.0,2.7,89,0.00,,OVC075,0.00,VWS V14.00,2013-02-24 16:53:00,
2013-02-24 08:54:00,39.6,36.6,30.39,NNE,22,0.0,2.7,89,0.00,,OVC075,0.00,VWS V14.00,2013-02-24 16:54:00,
2013-02-24 08:56:00,39.7,36.8,30.39,WSW,248,0.0,2.7,89,0.00,,OVC046,0.00,VWS V14.00,2013-02-24 16:56:00,
2013-02-24 08:58:00,39.7,36.8,30.39,West,270,2.5,2.7,89,0.00,,OVC075,0.00,VWS V14.00,2013-02-24 16:58:00,
2013-02-24 08:59:00,39.7,36.8,30.39,NNE,22,2.7,2.7,89,0.00,,OVC075,0.00,VWS V14.00,2013-02-24 16:59:00,
2013-02-24 09:01:00,39.7,36.8,30.39,NNE,22,0.0,2.7,89,0.00,,OVC075,0.00,VWS V14.00,2013-02-24 17:01:00,
2013-02-24 09:03:00,39.7,36.8,30.39,ENE,68,1.3,2.7,89,0.00,,OVC075,0.00,VWS V14.00,2013-02-24 17:03:00,
2013-02-24 09:04:00,39.9,37.0,30.39,ESE,112,3.6,3.6,89,0.00,,OVC046,0.00,VWS V14.00,2013-02-24 17:04:00,
2013-02-24 09:06:00,39.9,36.7,30.39,ENE,68,3.8,3.8,88,0.00,,OVC075,0.00,VWS V14.00,2013-02-24 17:06:00,
2013-02-24 09:08:00,39.9,36.7,30.39,East,90,1.3,3.8,88,0.00,,OVC075,0.00,VWS V14.00,2013-02-24 17:08:00,
2013-02-24 09:09:00,40.1,36.8,30.39,NE,45,0.9,3.8,88,0.00,,OVC075,0.00,VWS V14.00,2013-02-24 17:09:00,
2013-02-24 09:11:00,40.3,37.0,30.39,ENE,68,2.5,3.8,88,0.00,,OVC075,0.00,VWS V14.00,2013-02-24 17:11:00,
2013-02-24 09:13:00,40.3,37.0,30.39,NNE,22,2.7,3.8,88,0.00,,OVC075,0.00,VWS V14.00,2013-02-24 17:13:00,
2013-02-24 09:14:00,40.3,37.0,30.39,NNE,22,0.9,3.8,88,0.00,,OVC075,0.00,VWS V14.00,2013-02-24 17:14:00,
2013-02-24 09:17:00,40.5,37.2,30.39,NNE,22,2.5,3.8,88,0.00,,OVC046,0.00,VWS V14.00,2013-02-24 17:17:00,
2013-02-24 09:18:00,40.5,37.2,30.39,ENE,68,3.1,3.8,88,0.00,,OVC075,0.00,VWS V14.00,2013-02-24 17:18:00,
2013-02-24 09:19:00,40.5,37.2,30.39,East,90,3.1,3.8,88,0.00,,OVC075,0.00,VWS V14.00,2013-02-24 17:19:00,
2013-02-24 09:22:00,40.5,37.2,30.39,NE,45,2.9,3.8,88,0.00,,OVC075,0.00,VWS V14.00,2013-02-24 17:22:00,
2013-02-24 09:23:00,40.5,37.2,30.39,WNW,292,0.0,3.4,88,0.00,,OVC075,0.00,VWS V14.00,2013-02-24 17:23:00,
2013-02-24 09:24:00,40.5,37.2,30.39,NNE,22,3.6,3.6,88,0.00,,OVC075,0.00,VWS V14.00,2013-02-24 17:24:00,
2013-02-24 09:27:00,40.8,37.5,30.39,East,90,3.1,3.6,88,0.00,,OVC075,0.00,VWS V14.00,2013-02-24 17:27:00,
2013-02-24 09:28:00,40.8,37.3,30.39,NNW,338,2.9,3.6,87,0.00,,OVC075,0.00,VWS V14.00,2013-02-24 17:28:00,
2013-02-24 09:29:00,40.8,37.3,30.39,NNW,338,2.9,3.6,87,0.00,,OVC075,0.00,VWS V14.00,2013-02-24 17:29:00,
2013-02-24 09:32:00,40.8,37.3,30.39,NNW,338,1.1,3.6,87,0.00,,OVC075,0.00,VWS V14.00,2013-02-24 17:32:00,
2013-02-24 09:33:00,40.8,37.3,30.39,NW,315,1.6,3.6,87,0.00,,OVC075,0.00,VWS V14.00,2013-02-24 17:33:00,
2013-02-24 09:34:00,40.8,37.3,30.39,NW,315,1.6,3.6,87,0.00,,OVC075,0.00,VWS V14.00,2013-02-24 17:34:00,
2013-02-24 09:37:00,41.0,37.4,30.39,NE,45,1.6,3.6,87,0.00,,OVC075,0.00,VWS V14.00,2013-02-24 17:37:00,
2013-02-24 09:38:00,41.0,37.4,30.39,ENE,68,1.6,3.6,87,0.00,,OVC075,0.00,VWS V14.00,2013-02-24 17:38:00,
2013-02-24 09:39:00,41.0,37.4,30.39,ENE,68,4.0,4.0,87,0.00,,OVC075,0.00,VWS V14.00,2013-02-24 17:39:00,
2013-02-24 09:42:00,41.0,37.4,30.39,ENE,68,4.0,4.0,87,0.00,,OVC075,0.00,VWS V14.00,2013-02-24 17:42:00,
2013-02-24 09:43:00,41.0,37.4,30.39,NNW,338,2.9,4.0,87,0.00,,OVC075,0.00,VWS V14.00,2013-02-24 17:43:00,
2013-02-24 09:44:00,40.8,37.3,30.39,NE,45,2.2,4.0,87,0.00,,OVC075,0.00,VWS V14.00,2013-02-24 17:44:00,
2013-02-24 09:45:00,40.8,37.3,30.39,East,90,4.5,4.5,87,0.00,,OVC075,0.00,VWS V14.00,2013-02-24 17:45:00,
2013-02-24 09:47:00,40.8,37.3,30.39,SW,225,1.1,4.5,87,0.00,,OVC075,0.00,VWS V14.00,2013-02-24 17:47:00,
2013-02-24 09:48:00,41.0,37.4,30.39,East,90,2.0,4.5,87,0.00,,OVC075,0.00,VWS V14.00,2013-02-24 17:48:00,
2013-02-24 09:49:00,41.0,37.4,30.39,East,90,2.0,4.5,87,0.00,,OVC075,0.00,VWS V14.00,2013-02-24 17:49:00,
2013-02-24 09:50:00,41.0,37.4,30.39,East,90,2.0,4.5,87,0.00,,OVC075,0.00,VWS V14.00,2013-02-24 17:50:00,
2013-02-24 09:52:00,41.0,37.4,30.39,East,90,2.5,4.5,87,0.00,,OVC075,0.00,VWS V14.00,2013-02-24 17:52:00,
2013-02-24 09:53:00,41.2,37.3,30.39,NE,45,2.0,4.5,86,0.00,,OVC075,0.00,VWS V14.00,2013-02-24 17:53:00,
2013-02-24 09:54:00,41.2,37.3,30.39,East,90,2.2,4.5,86,0.00,,OVC075,0.00,VWS V14.00,2013-02-24 17:54:00,
2013-02-24 09:55:00,41.2,37.3,30.39,ENE,68,2.5,4.5,86,0.00,,OVC075,0.00,VWS V14.00,2013-02-24 17:55:00,
2013-02-24 09:57:00,41.4,37.5,30.39,West,270,1.6,2.5,86,0.00,,OVC075,0.00,VWS V14.00,2013-02-24 17:57:00,
2013-02-24 09:58:00,41.4,37.5,30.39,NNW,338,0.0,2.5,86,0.00,,OVC075,0.00,VWS V14.00,2013-02-24 17:58:00,
2013-02-24 09:59:00,41.4,37.5,30.39,NNW,338,0.0,2.5,86,0.00,,OVC075,0.00,VWS V14.00,2013-02-24 17:59:00,
2013-02-24 10:00:00,41.4,37.5,30.39,NE,45,0.0,1.6,86,0.00,,OVC075,0.00,VWS V14.00,2013-02-24 18:00:00,
2013-02-24 10:02:00,41.5,37.7,30.39,West,270,3.1,3.1,86,0.00,,OVC075,0.00,VWS V14.00,2013-02-24 18:02:00,
2013-02-24 10:03:00,41.5,37.7,30.39,WNW,292,2.0,3.1,86,0.00,,OVC075,0.00,VWS V14.00,2013-02-24 18:03:00,
2013-02-24 10:04:00,41.5,37.7,30.39,NE,45,2.5,3.1,86,0.00,,OVC075,0.00,VWS V14.00,2013-02-24 18:04:00,
2013-02-24 10:05:00,41.7,37.8,30.39,North,0,1.1,3.1,86,0.00,,OVC075,0.00,VWS V14.00,2013-02-24 18:05:00,
2013-02-24 10:07:00,41.7,37.8,30.39,NNE,22,2.7,3.1,86,0.00,,OVC075,0.00,VWS V14.00,2013-02-24 18:07:00,
2013-02-24 10:08:00,41.7,37.8,30.39,East,90,0.0,3.1,86,0.00,,OVC075,0.00,VWS V14.00,2013-02-24 18:08:00,
2013-02-24 10:09:00,41.9,38.0,30.39,ENE,68,2.5,3.1,86,0.00,,OVC075,0.00,VWS V14.00,2013-02-24 18:09:00,
2013-02-24 10:10:00,41.9,38.0,30.39,ENE,68,2.5,3.1,86,0.00,,OVC075,0.00,VWS V14.00,2013-02-24 18:10:00,
2013-02-24 10:12:00,41.9,38.0,30.39,East,90,3.6,3.6,86,0.00,,OVC075,0.00,VWS V14.00,2013-02-24 18:12:00,
2013-02-24 10:13:00,41.9,38.0,30.39,NE,45,2.2,3.6,86,0.00,,OVC075,0.00,VWS V14.00,2013-02-24 18:13:00,
2013-02-24 10:14:00,41.9,38.0,30.39,NE,45,2.2,3.6,86,0.00,,OVC075,0.00,VWS V14.00,2013-02-24 18:14:00,
2013-02-24 10:15:00,41.9,38.0,30.39,NE,45,2.7,3.6,86,0.00,,OVC075,0.00,VWS V14.00,2013-02-24 18:15:00,
2013-02-24 10:17:00,42.1,37.9,30.36,NW,315,2.0,2.7,85,0.00,,OVC075,0.00,VWS V14.00,2013-02-24 18:17:00,
2013-02-24 10:18:00,42.1,37.9,30.36,NW,315,1.6,2.7,85,0.00,,OVC075,0.00,VWS V14.00,2013-02-24 18:18:00,
2013-02-24 10:19:00,42.1,37.9,30.36,NNE,22,0.0,2.7,85,0.00,,OVC075,0.00,VWS V14.00,2013-02-24 18:19:00,
2013-02-24 10:20:00,42.1,37.9,30.36,NNE,22,0.0,2.7,85,0.00,,OVC075,0.00,VWS V14.00,2013-02-24 18:20:00,
2013-02-24 10:22:00,42.3,38.1,30.36,NNW,338,1.3,3.1,85,0.00,,OVC075,0.00,VWS V14.00,2013-02-24 18:22:00,
2013-02-24 10:23:00,42.3,38.1,30.36,ENE,68,2.7,3.1,85,0.00,,OVC075,0.00,VWS V14.00,2013-02-24 18:23:00,
2013-02-24 10:24:00,42.4,38.3,30.36,SSE,158,3.1,3.1,85,0.00,,OVC075,0.00,VWS V14.00,2013-02-24 18:24:00,
2013-02-24 10:25:00,42.4,38.3,30.36,SSE,158,3.1,3.1,85,0.00,,OVC075,0.00,VWS V14.00,2013-02-24 18:25:00,
2013-02-24 10:27:00,42.4,38.3,30.36,NNW,338,0.0,3.1,85,0.00,,OVC075,0.00,VWS V14.00,2013-02-24 18:27:00,
2013-02-24 10:28:00,42.4,38.3,30.36,NW,315,3.8,3.8,85,0.00,,OVC075,0.00,VWS V14.00,2013-02-24 18:28:00,
2013-02-24 10:29:00,42.4,38.3,30.36,NW,315,3.8,3.8,85,0.00,,OVC075,0.00,VWS V14.00,2013-02-24 18:29:00,
2013-02-24 10:30:00,42.8,38.6,30.36,NNW,338,0.0,3.8,85,0.00,,OVC075,0.00,VWS V14.00,2013-02-24 18:30:00,
2013-02-24 10:32:00,42.8,38.3,30.36,NE,45,0.0,3.8,84,0.00,,OVC075,0.00,VWS V14.00,2013-02-24 18:32:00,
2013-02-24 10:33:00,42.8,38.3,30.36,NNE,22,2.7,3.8,84,0.00,,OVC075,0.00,VWS V14.00,2013-02-24 18:33:00,
2013-02-24 10:34:00,42.8,38.3,30.36,NNW,338,1.6,3.8,84,0.00,,OVC075,0.00,VWS V14.00,2013-02-24 18:34:00,
2013-02-24 10:35:00,43.0,38.5,30.36,NE,45,1.3,3.8,84,0.00,,OVC075,0.00,VWS V14.00,2013-02-24 18:35:00,
2013-02-24 10:37:00,42.8,38.3,30.36,SSE,158,2.9,3.8,84,0.00,,OVC075,0.00,VWS V14.00,2013-02-24 18:37:00,
2013-02-24 10:39:00,42.8,38.0,30.36,NNW,338,3.8,3.8,83,0.00,,OVC075,0.00,VWS V14.00,2013-02-24 18:39:00,
2013-02-24 10:40:00,42.8,38.0,30.36,NE,45,4.3,4.3,83,0.00,,OVC075,0.00,VWS V14.00,2013-02-24 18:40:00,
2013-02-24 10:42:00,43.0,38.2,30.36,NE,45,2.9,4.3,83,0.00,,OVC075,0.00,VWS V14.00,2013-02-24 18:42:00,
2013-02-24 10:44:00,43.2,38.4,30.36,East,90,1.6,4.3,83,0.00,,OVC075,0.00,VWS V14.00,2013-02-24 18:44:00,
2013-02-24 10:45:00,43.2,38.4,30.36,East,90,1.6,4.3,83,0.00,,OVC075,0.00,VWS V14.00,2013-02-24 18:45:00,
2013-02-24 10:47:00,43.0,37.9,30.36,East,90,2.7,4.3,82,0.00,,OVC075,0.00,VWS V14.00,2013-02-24 18:47:00,
2013-02-24 10:49:00,43.0,37.9,30.36,NW,315,0.0,4.9,82,0.00,,OVC075,0.00,VWS V14.00,2013-02-24 18:49:00,
2013-02-24 10:50:00,43.0,38.2,30.36,West,270,0.0,4.9,83,0.00,,OVC075,0.00,VWS V14.00,2013-02-24 18:50:00,
2013-02-24 10:52:00,43.3,38.5,30.36,NE,45,3.1,4.9,83,0.00,,OVC075,0.00,VWS V14.00,2013-02-24 18:52:00,
2013-02-24 10:54:00,43.3,38.5,30.36,East,90,2.9,4.9,83,0.00,,OVC075,0.00,VWS V14.00,2013-02-24 18:54:00,
2013-02-24 10:55:00,43.3,38.2,30.36,NNE,22,2.2,4.9,82,0.00,,OVC075,0.00,VWS V14.00,2013-02-24 18:55:00,
2013-02-24 10:57:00,43.3,38.2,30.36,ENE,68,1.6,4.9,82,0.00,,OVC075,0.00,VWS V14.00,2013-02-24 18:57:00,
2013-02-24 10:59:00,43.5,38.4,30.36,North,0,1.6,4.9,82,0.00,,OVC075,0.00,VWS V14.00,2013-02-24 18:59:00,
2013-02-24 11:00:00,43.5,38.4,30.36,NNE,22,2.9,4.9,82,0.00,,OVC075,0.00,VWS V14.00,2013-02-24 19:00:00,
2013-02-24 11:02:00,43.5,38.4,30.36,ENE,68,6.5,6.5,82,0.00,,OVC075,0.00,VWS V14.00,2013-02-24 19:02:00,
2013-02-24 11:04:00,43.5,38.1,30.36,East,90,2.9,6.5,81,0.00,,OVC075,0.00,VWS V14.00,2013-02-24 19:04:00,
2013-02-24 11:05:00,43.5,38.1,30.36,NNE,22,3.1,6.5,81,0.00,,OVC075,0.00,VWS V14.00,2013-02-24 19:05:00,
2013-02-24 11:07:00,43.5,38.1,30.36,NE,45,3.4,6.5,81,0.00,,OVC075,0.00,VWS V14.00,2013-02-24 19:07:00,
2013-02-24 11:09:00,43.5,38.1,30.36,ESE,112,3.4,6.5,81,0.00,,OVC075,0.00,VWS V14.00,2013-02-24 19:09:00,
2013-02-24 11:10:00,43.5,38.1,30.36,WNW,292,0.0,6.5,81,0.00,,OVC075,0.00,VWS V14.00,2013-02-24 19:10:00,
2013-02-24 11:12:00,43.5,38.1,30.36,WNW,292,0.0,6.5,81,0.00,,OVC075,0.00,VWS V14.00,2013-02-24 19:12:00,
2013-02-24 11:14:00,44.1,38.9,30.36,East,90,0.0,6.5,82,0.00,,OVC075,0.00,VWS V14.00,2013-02-24 19:14:00,
2013-02-24 11:15:00,44.1,38.9,30.36,WNW,292,0.0,6.5,82,0.00,,OVC075,0.00,VWS V14.00,2013-02-24 19:15:00,
2013-02-24 11:18:00,44.1,38.9,30.36,East,90,0.9,6.5,82,0.00,,OVC075,0.00,VWS V14.00,2013-02-24 19:18:00,
2013-02-24 11:19:00,44.1,38.9,30.36,NE,45,0.0,6.5,82,0.00,,OVC075,0.00,VWS V14.00,2013-02-24 19:19:00,
2013-02-24 11:20:00,44.1,38.9,30.36,WNW,292,0.9,6.5,82,0.00,,OVC075,0.00,VWS V14.00,2013-02-24 19:20:00,
2013-02-24 11:23:00,44.2,39.1,30.36,ENE,68,0.0,3.8,82,0.00,,OVC075,0.00,VWS V14.00,2013-02-24 19:23:00,
2013-02-24 11:24:00,44.2,39.1,30.36,SE,135,2.2,3.8,82,0.00,,OVC075,0.00,VWS V14.00,2013-02-24 19:24:00,
2013-02-24 11:25:00,44.4,39.0,30.36,East,90,1.1,3.4,81,0.00,,OVC075,0.00,VWS V14.00,2013-02-24 19:25:00,
2013-02-24 11:28:00,44.4,39.3,30.36,ENE,68,3.8,3.8,82,0.00,,OVC075,0.00,VWS V14.00,2013-02-24 19:28:00,
2013-02-24 11:29:00,44.4,39.0,30.36,ESE,112,7.8,7.8,81,0.00,,OVC075,0.00,VWS V14.00,2013-02-24 19:29:00,
2013-02-24 11:30:00,44.4,39.0,30.36,ESE,112,7.8,7.8,81,0.00,,OVC075,0.00,VWS V14.00,2013-02-24 19:30:00,
2013-02-24 11:33:00,44.2,38.8,30.36,WSW,248,3.4,7.8,81,0.00,,OVC065,0.00,VWS V14.00,2013-02-24 19:33:00,
2013-02-24 11:34:00,44.4,39.0,30.36,ENE,68,5.8,7.8,81,0.00,,OVC065,0.00,VWS V14.00,2013-02-24 19:34:00,
2013-02-24 11:35:00,44.4,38.7,30.36,NE,45,4.0,7.8,80,0.00,,OVC065,0.00,VWS V14.00,2013-02-24 19:35:00,
2013-02-24 11:38:00,44.6,38.8,30.36,NE,45,3.4,7.8,80,0.00,,OVC065,0.00,VWS V14.00,2013-02-24 19:38:00,
2013-02-24 11:39:00,44.8,39.0,30.36,NNE,22,1.6,7.8,80,0.00,,OVC065,0.00,VWS V14.00,2013-02-24 19:39:00,
2013-02-24 11:40:00,44.8,38.7,30.36,NNE,22,2.9,7.8,79,0.00,,OVC065,0.00,VWS V14.00,2013-02-24 19:40:00,
2013-02-24 11:43:00,44.8,38.7,30.36,ENE,68,2.0,9.8,79,0.00,,OVC065,0.00,VWS V14.00,2013-02-24 19:43:00,
2013-02-24 11:44:00,45.1,39.0,30.36,NNE,22,3.1,9.8,79,0.00,,OVC065,0.00,VWS V14.00,2013-02-24 19:44:00,
2013-02-24 11:45:00,45.1,39.0,30.36,NNW,338,1.6,9.8,79,0.00,,OVC065,0.00,VWS V14.00,2013-02-24 19:45:00,
2013-02-24 11:48:00,45.1,39.0,30.36,NE,45,1.3,9.8,79,0.00,,OVC065,0.00,VWS V14.00,2013-02-24 19:48:00,
2013-02-24 11:49:00,45.3,39.2,30.36,NNE,22,0.0,9.8,79,0.00,,OVC065,0.00,VWS V14.00,2013-02-24 19:49:00,
2013-02-24 11:50:00,45.3,39.2,30.36,SW,225,1.1,9.8,79,0.00,,OVC065,0.00,VWS V14.00,2013-02-24 19:50:00,
2013-02-24 11:53:00,45.5,39.4,30.36,NNE,22,4.9,9.8,79,0.00,,OVC065,0.00,VWS V14.00,2013-02-24 19:53:00,
2013-02-24 11:54:00,45.5,39.4,30.36,ESE,112,4.7,9.8,79,0.00,,OVC065,0.00,VWS V14.00,2013-02-24 19:54:00,
2013-02-24 11:55:00,45.5,39.4,30.36,NE,45,2.7,9.8,79,0.00,,OVC065,0.00,VWS V14.00,2013-02-24 19:55:00,
2013-02-24 11:58:00,45.5,39.4,30.36,NNE,22,2.5,9.8,79,0.00,,OVC065,0.00,VWS V14.00,2013-02-24 19:58:00,
2013-02-24 11:59:00,45.5,39.4,30.36,NE,45,1.1,4.9,79,0.00,,OVC065,0.00,VWS V14.00,2013-02-24 19:59:00,
2013-02-24 12:00:00,45.5,39.0,30.36,WNW,292,0.0,4.9,78,0.00,,OVC065,0.00,VWS V14.00,2013-02-24 20:00:00,
2013-02-24 12:03:00,45.3,38.9,30.36,ESE,112,0.0,10.5,78,0.00,,OVC065,0.00,VWS V14.00,2013-02-24 20:03:00,
2013-02-24 12:04:00,45.3,38.9,30.36,North,0,2.2,10.5,78,0.00,,OVC065,0.00,VWS V14.00,2013-02-24 20:04:00,
2013-02-24 12:05:00,45.3,38.9,30.36,NE,45,3.1,10.5,78,0.00,,OVC065,0.00,VWS V14.00,2013-02-24 20:05:00,
2013-02-24 12:08:00,45.3,38.9,30.36,ESE,112,9.8,10.5,78,0.00,,OVC065,0.00,VWS V14.00,2013-02-24 20:08:00,
2013-02-24 12:09:00,45.1,38.4,30.36,NE,45,0.0,10.5,77,0.00,,OVC065,0.00,VWS V14.00,2013-02-24 20:09:00,
2013-02-24 12:10:00,45.1,38.4,30.36,ENE,68,3.1,10.5,77,0.00,,OVC065,0.00,VWS V14.00,2013-02-24 20:10:00,
2013-02-24 12:13:00,45.1,38.4,30.36,NE,45,5.6,10.5,77,0.00,,OVC065,0.00,VWS V14.00,2013-02-24 20:13:00,
2013-02-24 12:14:00,45.1,38.4,30.36,NNE,22,4.3,10.5,77,0.00,,OVC065,0.00,VWS V14.00,2013-02-24 20:14:00,
2013-02-24 12:15:00,45.1,38.4,30.36,East,90,7.8,10.5,77,0.00,,OVC065,0.00,VWS V14.00,2013-02-24 20:15:00,
2013-02-24 12:18:00,45.0,38.2,30.33,East,90,2.5,13.0,77,0.00,,OVC065,0.00,VWS V14.00,2013-02-24 20:18:00,
2013-02-24 12:19:00,44.8,37.7,30.33,NE,45,8.7,13.0,76,0.00,,OVC065,0.00,VWS V14.00,2013-02-24 20:19:00,
2013-02-24 12:21:00,44.8,37.7,30.33,ESE,112,7.6,13.0,76,0.00,,OVC065,0.00,VWS V14.00,2013-02-24 20:21:00,
2013-02-24 12:23:00,45.1,38.4,30.33,NE,45,3.8,13.0,77,0.00,,OVC065,0.00,VWS V14.00,2013-02-24 20:23:00,
2013-02-24 12:24:00,45.1,38.4,30.33,NNE,22,3.4,13.0,77,0.00,,OVC065,0.00,VWS V14.00,2013-02-24 20:24:00,
2013-02-24 12:26:00,45.1,38.4,30.33,East,90,3.1,13.0,77,0.00,,OVC065,0.00,VWS V14.00,2013-02-24 20:26:00,
2013-02-24 12:28:00,45.3,38.5,30.33,NNE,22,3.8,13.0,77,0.00,,OVC065,0.00,VWS V14.00,2013-02-24 20:28:00,
2013-02-24 12:29:00,45.3,38.5,30.33,NNW,338,4.0,13.0,77,0.00,,OVC065,0.00,VWS V14.00,2013-02-24 20:29:00,
2013-02-24 12:31:00,45.3,38.5,30.33,NNW,338,4.0,13.0,77,0.00,,OVC065,0.00,VWS V14.00,2013-02-24 20:31:00,
2013-02-24 12:33:00,45.5,38.7,30.33,SE,135,2.7,13.0,77,0.00,,OVC065,0.00,VWS V14.00,2013-02-24 20:33:00,
2013-02-24 12:34:00,45.5,38.7,30.33,East,90,6.5,13.0,77,0.00,,OVC065,0.00,VWS V14.00,2013-02-24 20:34:00,
2013-02-24 12:35:00,45.5,38.7,30.33,NE,45,5.6,8.7,77,0.00,,OVC065,0.00,VWS V14.00,2013-02-24 20:35:00,
2013-02-24 12:36:00,45.3,38.2,30.33,ENE,68,3.4,8.7,76,0.00,,OVC065,0.00,VWS V14.00,2013-02-24 20:36:00,
2013-02-24 12:38:00,45.3,38.2,30.33,ENE,68,3.8,6.5,76,0.00,,OVC065,0.00,VWS V14.00,2013-02-24 20:38:00,
2013-02-24 12:39:00,45.3,38.2,30.33,WNW,292,7.4,7.4,76,0.00,,OVC065,0.00,VWS V14.00,2013-02-24 20:39:00,
2013-02-24 12:40:00,45.3,38.2,30.33,WNW,292,7.4,7.4,76,0.00,,OVC065,0.00,VWS V14.00,2013-02-24 20:40:00,
2013-02-24 12:41:00,45.3,38.2,30.33,East,90,5.8,7.4,76,0.00,,OVC065,0.00,VWS V14.00,2013-02-24 20:41:00,
2013-02-24 12:43:00,45.5,38.4,30.33,East,90,7.4,7.4,76,0.00,,OVC065,0.00,VWS V14.00,2013-02-24 20:43:00,
2013-02-24 12:44:00,45.3,38.2,30.33,ENE,68,4.9,7.4,76,0.00,,OVC065,0.00,VWS V14.00,2013-02-24 20:44:00,
2013-02-24 12:45:00,45.3,38.2,30.33,ENE,68,4.9,7.4,76,0.00,,OVC065,0.00,VWS V14.00,2013-02-24 20:45:00,
2013-02-24 12:46:00,45.5,38.4,30.33,ESE,112,6.0,7.4,76,0.00,,OVC065,0.00,VWS V14.00,2013-02-24 20:46:00,
2013-02-24 12:48:00,45.5,38.4,30.33,ENE,68,9.8,9.8,76,0.00,,OVC065,0.00,VWS V14.00,2013-02-24 20:48:00,
2013-02-24 12:50:00,45.5,38.4,30.33,East,90,3.4,9.8,76,0.00,,OVC065,0.00,VWS V14.00,2013-02-24 20:50:00,
2013-02-24 12:51:00,45.5,38.4,30.33,ENE,68,6.3,9.8,76,0.00,,OVC065,0.00,VWS V14.00,2013-02-24 20:51:00,
2013-02-24 12:54:00,45.5,38.0,30.33,East,90,9.8,13.4,75,0.00,,OVC065,0.00,VWS V14.00,2013-02-24 20:54:00,
2013-02-24 12:55:00,45.5,38.0,30.33,WSW,248,5.8,13.4,75,0.00,,OVC065,0.00,VWS V14.00,2013-02-24 20:55:00,
2013-02-24 12:56:00,45.5,38.0,30.33,ESE,112,3.6,13.4,75,0.00,,OVC065,0.00,VWS V14.00,2013-02-24 20:56:00,
2013-02-24 12:59:00,45.5,38.0,30.33,East,90,3.8,13.4,75,0.00,,OVC065,0.00,VWS V14.00,2013-02-24 20:59:00,
2013-02-24 13:00:00,45.7,38.2,30.33,East,90,3.8,13.4,75,0.00,,OVC065,0.00,VWS V14.00,2013-02-24 21:00:00,
2013-02-24 13:01:00,45.7,38.2,30.33,NNE,22,4.7,13.4,75,0.00,,OVC065,0.00,VWS V14.00,2013-02-24 21:01:00,
2013-02-24 13:04:00,45.9,38.4,30.33,SE,135,3.1,13.4,75,0.00,,OVC065,0.00,VWS V14.00,2013-02-24 21:04:00,
2013-02-24 13:05:00,45.9,38.4,30.33,NE,45,6.0,13.4,75,0.00,,OVC065,0.00,VWS V14.00,2013-02-24 21:05:00,
2013-02-24 13:06:00,46.0,38.6,30.33,East,90,2.9,13.4,75,0.00,,OVC065,0.00,VWS V14.00,2013-02-24 21:06:00,
2013-02-24 13:09:00,46.0,38.6,30.33,SE,135,6.3,9.8,75,0.00,,OVC065,0.00,VWS V14.00,2013-02-24 21:09:00,
2013-02-24 13:10:00,46.0,38.6,30.33,East,90,6.5,6.5,75,0.00,,OVC065,0.00,VWS V14.00,2013-02-24 21:10:00,
2013-02-24 13:11:00,46.0,38.6,30.33,ENE,68,4.3,6.5,75,0.00,,OVC065,0.00,VWS V14.00,2013-02-24 21:11:00,
2013-02-24 13:14:00,46.0,38.2,30.33,ENE,68,9.8,9.8,74,0.00,,OVC065,0.00,VWS V14.00,2013-02-24 21:14:00,
2013-02-24 13:15:00,46.0,38.2,30.33,ENE,68,9.8,9.8,74,0.00,,OVC065,0.00,VWS V14.00,2013-02-24 21:15:00,
2013-02-24 13:16:00,46.0,38.2,30.33,ENE,68,5.4,9.8,74,0.00,,OVC065,0.00,VWS V14.00,2013-02-24 21:16:00,
2013-02-24 13:19:00,46.2,38.4,30.30,SE,135,11.0,11.0,74,0.00,,OVC065,0.00,VWS V14.00,2013-02-24 21:19:00,
2013-02-24 13:20:00,46.2,38.4,30.30,NE,45,3.6,11.0,74,0.00,,OVC065,0.00,VWS V14.00,2013-02-24 21:20:00,
2013-02-24 13:21:00,46.2,38.4,30.30,East,90,5.6,11.0,74,0.00,,OVC065,0.00,VWS V14.00,2013-02-24 21:21:00,
2013-02-24 13:24:00,46.4,38.2,30.30,ESE,112,3.8,11.0,73,0.00,,OVC065,0.00,VWS V14.00,2013-02-24 21:24:00,
2013-02-24 13:25:00,46.6,38.4,30.30,ESE,112,3.8,11.0,73,0.00,,OVC065,0.00,VWS V14.00,2013-02-24 21:25:00,
2013-02-24 13:26:00,46.6,38.4,30.30,NNW,338,3.6,11.0,73,0.00,,OVC065,0.00,VWS V14.00,2013-02-24 21:26:00,
2013-02-24 13:29:00,46.6,38.4,30.30,ESE,112,2.9,11.0,73,0.00,,OVC065,0.00,VWS V14.00,2013-02-24 21:29:00,
2013-02-24 13:30:00,46.6,38.4,30.30,ESE,112,9.6,11.0,73,0.00,,OVC065,0.00,VWS V14.00,2013-02-24 21:30:00,
2013-02-24 13:31:00,46.6,38.4,30.30,East,90,5.4,11.0,73,0.00,,OVC065,0.00,VWS V14.00,2013-02-24 21:31:00,
2013-02-24 13:34:00,46.6,38.4,30.30,East,90,10.7,11.0,73,0.00,,OVC065,0.00,VWS V14.00,2013-02-24 21:34:00,
2013-02-24 13:35:00,46.6,38.4,30.30,East,90,10.7,11.0,73,0.00,,OVC065,0.00,VWS V14.00,2013-02-24 21:35:00,
2013-02-24 13:36:00,46.6,38.4,30.30,East,90,10.5,10.7,73,0.00,,OVC065,0.00,VWS V14.00,2013-02-24 21:36:00,
2013-02-24 13:39:00,46.6,38.4,30.30,NE,45,2.0,10.7,73,0.00,,OVC065,0.00,VWS V14.00,2013-02-24 21:39:00,
2013-02-24 13:40:00,46.6,38.4,30.30,SE,135,5.4,10.7,73,0.00,,OVC065,0.00,VWS V14.00,2013-02-24 21:40:00,
2013-02-24 13:41:00,46.6,38.0,30.30,SE,135,5.4,10.7,72,0.00,,OVC065,0.00,VWS V14.00,2013-02-24 21:41:00,
2013-02-24 13:44:00,46.6,37.7,30.30,East,90,8.7,10.7,71,0.00,,OVC065,0.00,VWS V14.00,2013-02-24 21:44:00,
2013-02-24 13:45:00,46.6,37.7,30.30,ENE,68,9.6,10.7,71,0.00,,OVC065,0.00,VWS V14.00,2013-02-24 21:45:00,
2013-02-24 13:46:00,46.6,38.0,30.30,ESE,112,2.7,10.7,72,0.00,,OVC065,0.00,VWS V14.00,2013-02-24 21:46:00,
2013-02-24 13:49:00,46.6,37.7,30.30,NNE,22,3.1,11.4,71,0.00,,OVC065,0.00,VWS V14.00,2013-02-24 21:49:00,
2013-02-24 13:50:00,46.6,37.7,30.30,NNE,22,3.1,11.4,71,0.00,,OVC065,0.00,VWS V14.00,2013-02-24 21:50:00,
2013-02-24 13:51:00,46.8,37.9,30.30,East,90,5.8,11.4,71,0.00,,OVC065,0.00,VWS V14.00,2013-02-24 21:51:00,
2013-02-24 13:54:00,46.8,37.9,30.30,NNW,338,4.7,11.4,71,0.00,,OVC065,0.00,VWS V14.00,2013-02-24 21:54:00,
2013-02-24 13:55:00,46.8,37.9,30.30,ENE,68,6.7,11.4,71,0.00,,OVC065,0.00,VWS V14.00,2013-02-24 21:55:00,
2013-02-24 13:56:00,46.8,37.5,30.30,ESE,112,7.6,11.4,70,0.00,,OVC065,0.00,VWS V14.00,2013-02-24 21:56:00,
2013-02-24 14:00:00,46.8,37.9,30.30,ESE,112,2.7,11.4,71,0.00,,OVC065,0.00,VWS V14.00,2013-02-24 22:00:00,
2013-02-24 14:01:00,46.9,38.0,30.30,ENE,68,6.3,11.4,71,0.00,,OVC065,0.00,VWS V14.00,2013-02-24 22:01:00,
2013-02-24 14:05:00,47.1,38.2,30.30,ESE,112,4.9,7.8,71,0.00,,OVC065,0.00,VWS V14.00,2013-02-24 22:05:00,
2013-02-24 14:07:00,47.1,38.2,30.30,ESE,112,4.9,4.9,71,0.00,,OVC065,0.00,VWS V14.00,2013-02-24 22:07:00,
2013-02-24 14:10:00,47.1,38.2,30.27,ESE,112,4.9,4.9,71,0.00,,OVC065,0.00,VWS V14.00,2013-02-24 22:10:00,
2013-02-24 14:11:00,47.1,37.8,30.27,East,90,7.8,7.8,70,0.00,,OVC065,0.00,VWS V14.00,2013-02-24 22:11:00,
2013-02-24 14:12:00,47.1,37.8,30.27,ESE,112,6.0,7.8,70,0.00,,OVC065,0.00,VWS V14.00,2013-02-24 22:12:00,
2013-02-24 14:15:00,47.1,37.8,30.27,ESE,112,5.6,8.1,70,0.00,,OVC065,0.00,VWS V14.00,2013-02-24 22:15:00,
2013-02-24 14:16:00,47.1,37.8,30.27,ESE,112,5.6,8.1,70,0.00,,OVC065,0.00,VWS V14.00,2013-02-24 22:16:00,
2013-02-24 14:17:00,47.1,37.8,30.27,East,90,3.8,8.1,70,0.00,,OVC065,0.00,VWS V14.00,2013-02-24 22:17:00,
2013-02-24 14:20:00,47.1,37.8,30.27,ENE,68,3.8,8.1,70,0.00,,OVC065,0.00,VWS V14.00,2013-02-24 22:20:00,
2013-02-24 14:21:00,47.1,37.8,30.27,SE,135,4.7,8.1,70,0.00,,OVC065,0.00,VWS V14.00,2013-02-24 22:21:00,
2013-02-24 14:22:00,47.1,37.8,30.27,ESE,112,5.6,8.1,70,0.00,,OVC065,0.00,VWS V14.00,2013-02-24 22:22:00,
2013-02-24 14:25:00,47.3,38.0,30.27,East,90,5.4,8.1,70,0.00,,OVC065,0.00,VWS V14.00,2013-02-24 22:25:00,
2013-02-24 14:26:00,47.3,38.0,30.27,NNE,22,4.3,5.6,70,0.00,,OVC065,0.00,VWS V14.00,2013-02-24 22:26:00,
2013-02-24 14:27:00,47.3,38.0,30.27,ENE,68,5.4,5.6,70,0.00,,OVC065,0.00,VWS V14.00,2013-02-24 22:27:00,
2013-02-24 14:30:00,47.5,38.2,30.27,NE,45,2.5,5.6,70,0.00,,OVC065,0.00,VWS V14.00,2013-02-24 22:30:00,
2013-02-24 14:31:00,47.5,38.2,30.27,ESE,112,3.8,5.6,70,0.00,,OVC065,0.00,VWS V14.00,2013-02-24 22:31:00,
2013-02-24 14:32:00,47.5,38.2,30.27,ENE,68,6.0,6.0,70,0.00,,OVC041,0.00,VWS V14.00,2013-02-24 22:32:00,
2013-02-24 14:35:00,47.5,37.8,30.27,ENE,68,3.8,8.5,69,0.00,,OVC041,0.00,VWS V14.00,2013-02-24 22:35:00,
2013-02-24 14:36:00,47.5,37.8,30.27,ENE,68,3.8,8.5,69,0.00,,OVC041,0.00,VWS V14.00,2013-02-24 22:36:00,
2013-02-24 14:37:00,47.5,37.8,30.27,NE,45,3.6,8.5,69,0.00,,OVC041,0.00,VWS V14.00,2013-02-24 22:37:00,
2013-02-24 14:40:00,47.5,37.8,30.27,ESE,112,3.8,8.5,69,0.00,,OVC041,0.00,VWS V14.00,2013-02-24 22:40:00,
2013-02-24 14:41:00,47.5,37.8,30.27,East,90,8.5,8.5,69,0.00,,OVC041,0.00,VWS V14.00,2013-02-24 22:41:00,
2013-02-24 14:42:00,47.5,37.8,30.27,East,90,8.5,8.5,69,0.00,,OVC041,0.00,VWS V14.00,2013-02-24 22:42:00,
2013-02-24 14:45:00,47.7,38.4,30.27,East,90,7.8,8.5,70,0.00,,OVC041,0.00,VWS V14.00,2013-02-24 22:45:00,
2013-02-24 14:46:00,47.7,38.0,30.27,East,90,3.6,8.5,69,0.00,,OVC041,0.00,VWS V14.00,2013-02-24 22:46:00,
2013-02-24 14:47:00,47.7,38.0,30.24,NNE,22,2.7,8.5,69,0.00,,OVC070,0.00,VWS V14.00,2013-02-24 22:47:00,
2013-02-24 14:50:00,47.8,38.5,30.24,East,90,2.7,8.5,70,0.00,,OVC070,0.00,VWS V14.00,2013-02-24 22:50:00,
2013-02-24 14:51:00,47.8,38.5,30.24,East,90,2.7,7.8,70,0.00,,OVC070,0.00,VWS V14.00,2013-02-24 22:51:00,
2013-02-24 14:52:00,47.8,38.5,30.24,NE,45,2.0,3.8,70,0.00,,OVC070,0.00,VWS V14.00,2013-02-24 22:52:00,
2013-02-24 14:55:00,48.0,38.3,30.24,ENE,68,4.0,4.3,69,0.00,,OVC070,0.00,VWS V14.00,2013-02-24 22:55:00,
2013-02-24 14:56:00,48.0,38.3,30.24,ENE,68,4.0,4.3,69,0.00,,OVC070,0.00,VWS V14.00,2013-02-24 22:56:00,
2013-02-24 14:57:00,48.0,38.3,30.24,ENE,68,6.3,6.3,69,0.00,,OVC070,0.00,VWS V14.00,2013-02-24 22:57:00,
2013-02-24 15:00:00,48.0,38.3,30.24,NNW,338,1.3,7.2,69,0.00,,OVC070,0.00,VWS V14.00,2013-02-24 23:00:00,
2013-02-24 15:01:00,48.0,38.3,30.24,NNW,338,1.3,7.2,69,0.00,,OVC070,0.00,VWS V14.00,2013-02-24 23:01:00,
2013-02-24 15:02:00,48.2,38.2,30.24,NNE,22,1.3,7.2,68,0.00,,OVC070,0.00,VWS V14.00,2013-02-24 23:02:00,
2013-02-24 15:05:00,48.2,38.2,30.24,ENE,68,1.3,7.2,68,0.00,,OVC070,0.00,VWS V14.00,2013-02-24 23:05:00,
2013-02-24 15:06:00,48.2,38.2,30.24,ENE,68,4.9,7.2,68,0.00,,OVC070,0.00,VWS V14.00,2013-02-24 23:06:00,
2013-02-24 15:07:00,48.2,38.2,30.24,NE,45,6.3,7.2,68,0.00,,OVC070,0.00,VWS V14.00,2013-02-24 23:07:00,
2013-02-24 15:10:00,48.2,38.2,30.24,ESE,112,2.7,7.2,68,0.00,,OVC070,0.00,VWS V14.00,2013-02-24 23:10:00,
2013-02-24 15:11:00,48.2,38.2,30.24,East,90,3.1,7.2,68,0.00,,OVC070,0.00,VWS V14.00,2013-02-24 23:11:00,
2013-02-24 15:12:00,48.2,38.2,30.24,East,90,3.4,7.2,68,0.00,,OVC070,0.00,VWS V14.00,2013-02-24 23:12:00,
2013-02-24 15:15:00,48.2,38.5,30.24,WSW,248,1.6,6.3,69,0.00,,OVC070,0.00,VWS V14.00,2013-02-24 23:15:00,
2013-02-24 15:16:00,48.2,38.5,30.24,WSW,248,1.6,6.3,69,0.00,,OVC070,0.00,VWS V14.00,2013-02-24 23:16:00,
2013-02-24 15:17:00,48.4,38.3,30.24,SE,135,9.8,9.8,68,0.00,,OVC070,0.00,VWS V14.00,2013-02-24 23:17:00,
2013-02-24 15:20:00,48.2,37.8,30.24,ENE,68,6.5,9.8,67,0.00,,OVC070,0.00,VWS V14.00,2013-02-24 23:20:00,
2013-02-24 15:21:00,48.2,37.8,30.24,East,90,3.6,9.8,67,0.00,,OVC070,0.00,VWS V14.00,2013-02-24 23:21:00,
2013-02-24 15:22:00,48.2,37.8,30.24,NE,45,2.9,9.8,67,0.00,,OVC070,0.00,VWS V14.00,2013-02-24 23:22:00,
2013-02-24 15:25:00,48.2,37.8,30.24,ESE,112,4.3,9.8,67,0.00,,OVC070,0.00,VWS V14.00,2013-02-24 23:25:00,
2013-02-24 15:26:00,48.2,37.8,30.24,ESE,112,4.3,9.8,67,0.00,,OVC070,0.00,VWS V14.00,2013-02-24 23:26:00,
2013-02-24 15:27:00,48.2,37.8,30.24,WNW,292,1.1,9.8,67,0.00,,OVC070,0.00,VWS V14.00,2013-02-24 23:27:00,
2013-02-24 15:30:00,48.4,37.9,30.24,NE,45,2.5,9.8,67,0.00,,OVC070,0.00,VWS V14.00,2013-02-24 23:30:00,
2013-02-24 15:31:00,48.4,37.9,30.24,ESE,112,2.9,9.8,67,0.00,,OVC070,0.00,VWS V14.00,2013-02-24 23:31:00,
2013-02-24 15:32:00,48.4,37.9,30.24,ESE,112,8.1,9.8,67,0.00,,OVC070,0.00,VWS V14.00,2013-02-24 23:32:00,
2013-02-24 15:35:00,48.2,37.4,30.24,SW,225,4.7,8.1,66,0.00,,OVC070,0.00,VWS V14.00,2013-02-24 23:35:00,
2013-02-24 15:36:00,48.2,37.4,30.24,East,90,5.4,8.1,66,0.00,,OVC070,0.00,VWS V14.00,2013-02-24 23:36:00,
2013-02-24 15:37:00,48.2,37.4,30.24,East,90,4.9,8.1,66,0.00,,OVC070,0.00,VWS V14.00,2013-02-24 23:37:00,
2013-02-24 15:40:00,48.2,36.6,30.24,NE,45,6.0,8.1,64,0.00,,OVC070,0.00,VWS V14.00,2013-02-24 23:40:00,
2013-02-24 15:41:00,48.2,36.6,30.24,NE,45,3.1,8.1,64,0.00,,OVC070,0.00,VWS V14.00,2013-02-24 23:41:00,
2013-02-24 15:42:00,48.2,36.6,30.24,NNW,338,2.0,8.1,64,0.00,,OVC070,0.00,VWS V14.00,2013-02-24 23:42:00,
2013-02-24 15:45:00,48.2,36.6,30.24,ESE,112,5.6,8.1,64,0.00,,OVC070,0.00,VWS V14.00,2013-02-24 23:45:00,
2013-02-24 15:46:00,48.2,37.0,30.24,ESE,112,5.6,8.1,65,0.00,,OVC070,0.00,VWS V14.00,2013-02-24 23:46:00,
2013-02-24 15:47:00,48.2,37.0,30.24,NE,45,1.3,8.1,65,0.00,,OVC070,0.00,VWS V14.00,2013-02-24 23:47:00,
2013-02-24 15:50:00,48.2,37.0,30.24,East,90,5.4,6.0,65,0.00,,OVC070,0.00,VWS V14.00,2013-02-24 23:50:00,
2013-02-24 15:51:00,48.2,37.0,30.24,East,90,5.4,6.0,65,0.00,,OVC070,0.00,VWS V14.00,2013-02-24 23:51:00,
2013-02-24 15:53:00,48.2,36.6,30.24,ENE,68,2.5,6.0,64,0.00,,OVC070,0.00,VWS V14.00,2013-02-24 23:53:00,
2013-02-24 15:56:00,48.2,37.0,30.24,NNE,22,4.9,6.0,65,0.00,,OVC070,0.00,VWS V14.00,2013-02-24 23:56:00,
2013-02-24 15:58:00,48.2,37.0,30.24,East,90,3.4,5.6,65,0.00,,OVC070,0.00,VWS V14.00,2013-02-24 23:58:00,
2013-02-24 16:01:00,48.2,37.0,30.24,ESE,112,3.4,5.6,65,0.00,,OVC070,0.00,VWS V14.00,2013-02-25 00:01:00,
2013-02-24 16:03:00,48.2,37.0,30.24,ESE,112,4.9,5.6,65,0.00,,OVC070,0.00,VWS V14.00,2013-02-25 00:03:00,
2013-02-24 16:06:00,48.2,37.0,30.24,East,90,2.9,6.0,65,0.00,,OVC070,0.00,VWS V14.00,2013-02-25 00:06:00,
2013-02-24 16:08:00,48.2,37.0,30.24,NE,45,3.4,6.0,65,0.00,,OVC070,0.00,VWS V14.00,2013-02-25 00:08:00,
2013-02-24 16:11:00,48.2,36.6,30.24,ESE,112,4.5,7.4,64,0.00,,OVC070,0.00,VWS V14.00,2013-02-25 00:11:00,
2013-02-24 16:13:00,48.2,37.0,30.24,East,90,6.0,7.4,65,0.00,,OVC070,0.00,VWS V14.00,2013-02-25 00:13:00,
2013-02-24 16:16:00,48.0,36.4,30.24,East,90,5.8,8.1,64,0.00,,OVC070,0.00,VWS V14.00,2013-02-25 00:16:00,
2013-02-24 16:18:00,48.0,36.8,30.21,NE,45,2.7,8.1,65,0.00,,OVC070,0.00,VWS V14.00,2013-02-25 00:18:00,
2013-02-24 16:21:00,48.0,36.8,30.21,East,90,4.0,8.1,65,0.00,,OVC070,0.00,VWS V14.00,2013-02-25 00:21:00,
2013-02-24 16:23:00,48.0,36.8,30.21,ESE,112,5.8,8.1,65,0.00,,OVC070,0.00,VWS V14.00,2013-02-25 00:23:00,
2013-02-24 16:26:00,48.0,36.8,30.21,East,90,3.6,8.1,65,0.00,,OVC070,0.00,VWS V14.00,2013-02-25 00:26:00,
2013-02-24 16:28:00,48.0,36.8,30.21,East,90,2.0,8.1,65,0.00,,OVC070,0.00,VWS V14.00,2013-02-25 00:28:00,
2013-02-24 16:31:00,48.0,36.8,30.21,NNW,338,1.6,8.1,65,0.00,,OVC070,0.00,VWS V14.00,2013-02-25 00:31:00,
2013-02-24 16:33:00,48.0,36.4,30.21,North,0,2.9,5.8,64,0.00,,OVC070,0.00,VWS V14.00,2013-02-25 00:33:00,
2013-02-24 16:36:00,48.0,36.4,30.21,SSW,202,0.0,5.8,64,0.00,,OVC070,0.00,VWS V14.00,2013-02-25 00:36:00,
2013-02-24 16:38:00,48.0,36.8,30.21,NE,45,3.4,5.8,65,0.00,,OVC070,0.00,VWS V14.00,2013-02-25 00:38:00,
2013-02-24 16:41:00,48.0,36.4,30.21,NE,45,1.3,5.8,64,0.00,,OVC070,0.00,VWS V14.00,2013-02-25 00:41:00,
2013-02-24 16:43:00,48.0,36.4,30.21,North,0,2.7,4.3,64,0.00,,OVC070,0.00,VWS V14.00,2013-02-25 00:43:00,
2013-02-24 16:46:00,48.0,36.4,30.21,NE,45,1.6,4.3,64,0.00,,OVC070,0.00,VWS V14.00,2013-02-25 00:46:00,
2013-02-24 16:48:00,48.0,36.4,30.21,ESE,112,2.5,4.3,64,0.00,,OVC070,0.00,VWS V14.00,2013-02-25 00:48:00,
2013-02-24 16:51:00,47.8,37.0,30.21,ESE,112,0.0,4.3,66,0.00,,OVC070,0.00,VWS V14.00,2013-02-25 00:51:00,
2013-02-24 16:52:00,47.8,37.0,30.21,ESE,112,0.0,4.3,66,0.00,,OVC070,0.00,VWS V14.00,2013-02-25 00:52:00,
2013-02-24 16:53:00,47.8,37.4,30.21,NW,315,0.0,4.3,67,0.00,,OVC070,0.00,VWS V14.00,2013-02-25 00:53:00,
2013-02-24 16:56:00,47.7,36.5,30.21,SE,135,3.8,3.8,65,0.00,,OVC070,0.00,VWS V14.00,2013-02-25 00:56:00,
2013-02-24 16:57:00,47.7,36.5,30.21,North,0,4.3,4.3,65,0.00,,OVC070,0.00,VWS V14.00,2013-02-25 00:57:00,
2013-02-24 16:58:00,47.7,36.5,30.21,North,0,3.6,4.3,65,0.00,,OVC070,0.00,VWS V14.00,2013-02-25 00:58:00,
2013-02-24 17:01:00,47.7,36.1,30.21,East,90,3.8,4.3,64,0.00,,OVC070,0.00,VWS V14.00,2013-02-25 01:01:00,
2013-02-24 17:02:00,47.7,36.1,30.21,East,90,3.8,4.3,64,0.00,,OVC070,0.00,VWS V14.00,2013-02-25 01:02:00,
2013-02-24 17:03:00,47.5,35.9,30.18,NE,45,2.9,4.3,64,0.00,,OVC070,0.00,VWS V14.00,2013-02-25 01:03:00,
2013-02-24 17:06:00,47.5,35.9,30.18,NNE,22,0.9,4.3,64,0.00,,OVC070,0.00,VWS V14.00,2013-02-25 01:06:00,
2013-02-24 17:07:00,47.5,35.9,30.18,NNE,22,0.9,4.3,64,0.00,,OVC070,0.00,VWS V14.00,2013-02-25 01:07:00,
2013-02-24 17:08:00,47.3,35.8,30.18,NNE,22,2.7,4.3,64,0.00,,OVC070,0.00,VWS V14.00,2013-02-25 01:08:00,
2013-02-24 17:11:00,47.3,35.8,30.18,ESE,112,2.5,4.3,64,0.00,,OVC070,0.00,VWS V14.00,2013-02-25 01:11:00,
2013-02-24 17:12:00,47.3,35.8,30.18,East,90,5.4,5.4,64,0.00,,OVC070,0.00,VWS V14.00,2013-02-25 01:12:00,
2013-02-24 17:13:00,47.3,36.2,30.18,ENE,68,2.5,5.4,65,0.00,,OVC070,0.00,VWS V14.00,2013-02-25 01:13:00,
2013-02-24 17:16:00,47.3,35.8,30.18,ESE,112,2.5,5.4,64,0.00,,OVC070,0.00,VWS V14.00,2013-02-25 01:16:00,
2013-02-24 17:17:00,47.3,36.2,30.18,ESE,112,2.5,5.4,65,0.00,,OVC070,0.00,VWS V14.00,2013-02-25 01:17:00,
2013-02-24 17:19:00,47.3,36.2,30.18,ENE,68,0.0,5.4,65,0.00,,OVC070,0.00,VWS V14.00,2013-02-25 01:19:00,
2013-02-24 17:21:00,47.3,36.2,30.18,WNW,292,0.9,5.4,65,0.00,,OVC070,0.00,VWS V14.00,2013-02-25 01:21:00,
2013-02-24 17:22:00,47.3,36.2,30.18,East,90,0.0,5.4,65,0.00,,OVC070,0.00,VWS V14.00,2013-02-25 01:22:00,
2013-02-24 17:24:00,47.3,36.2,30.18,East,90,1.3,5.4,65,0.00,,OVC070,0.00,VWS V14.00,2013-02-25 01:24:00,
2013-02-24 17:26:00,47.1,36.7,30.18,ENE,68,0.0,5.4,67,0.00,,OVC070,0.00,VWS V14.00,2013-02-25 01:26:00,
2013-02-24 17:27:00,47.1,36.7,30.18,ENE,68,0.0,5.4,67,0.00,,OVC070,0.00,VWS V14.00,2013-02-25 01:27:00,
2013-02-24 17:29:00,46.9,36.6,30.18,SE,135,0.0,2.9,67,0.00,,OVC070,0.00,VWS V14.00,2013-02-25 01:29:00,
2013-02-24 17:31:00,46.8,36.8,30.18,ENE,68,1.1,2.9,68,0.00,,OVC070,0.00,VWS V14.00,2013-02-25 01:31:00,
2013-02-24 17:32:00,46.8,36.8,30.18,NNW,338,1.3,2.5,68,0.00,,OVC060,0.00,VWS V14.00,2013-02-25 01:32:00,
2013-02-24 17:34:00,46.9,36.2,30.18,NNW,338,0.0,2.0,66,0.00,,OVC060,0.00,VWS V14.00,2013-02-25 01:34:00,
2013-02-24 17:36:00,46.9,36.6,30.18,NNE,22,0.0,1.3,67,0.00,,OVC060,0.00,VWS V14.00,2013-02-25 01:36:00,
2013-02-24 17:37:00,46.9,36.6,30.18,NNE,22,0.0,1.3,67,0.00,,OVC060,0.00,VWS V14.00,2013-02-25 01:37:00,
2013-02-24 17:39:00,46.8,36.4,30.18,North,0,1.3,1.3,67,0.00,,OVC060,0.00,VWS V14.00,2013-02-25 01:39:00,
2013-02-24 17:41:00,46.8,36.4,30.18,WNW,292,0.0,1.3,67,0.00,,OVC060,0.00,VWS V14.00,2013-02-25 01:41:00,
2013-02-24 17:42:00,46.8,36.4,30.18,WNW,292,0.0,1.3,67,0.00,,OVC060,0.00,VWS V14.00,2013-02-25 01:42:00,
2013-02-24 17:44:00,46.8,36.4,30.18,WNW,292,0.0,1.3,67,0.00,,OVC060,0.00,VWS V14.00,2013-02-25 01:44:00,
2013-02-24 17:46:00,46.8,36.4,30.18,WNW,292,1.1,1.3,67,0.00,,OVC060,0.00,VWS V14.00,2013-02-25 01:46:00,
2013-02-24 17:47:00,46.8,36.0,30.18,WNW,292,1.3,1.3,66,0.00,,OVC060,0.00,VWS V14.00,2013-02-25 01:47:00,
2013-02-24 17:49:00,46.8,36.0,30.18,WNW,292,0.0,1.3,66,0.00,,OVC060,0.00,VWS V14.00,2013-02-25 01:49:00,
2013-02-24 17:51:00,46.6,36.2,30.18,ESE,112,0.0,1.3,67,0.00,,OVC060,0.00,VWS V14.00,2013-02-25 01:51:00,
2013-02-24 17:52:00,46.6,36.2,30.18,North,0,2.2,2.2,67,0.00,,OVC060,0.00,VWS V14.00,2013-02-25 01:52:00,
2013-02-24 17:54:00,46.6,35.8,30.18,WSW,248,0.0,2.2,66,0.00,,OVC060,0.00,VWS V14.00,2013-02-25 01:54:00,
2013-02-24 17:56:00,46.6,35.8,30.18,WNW,292,0.0,2.2,66,0.00,,OVC060,0.00,VWS V14.00,2013-02-25 01:56:00,
2013-02-24 17:57:00,46.6,35.8,30.18,WNW,292,0.0,2.2,66,0.00,,OVC060,0.00,VWS V14.00,2013-02-25 01:57:00,
2013-02-24 17:59:00,46.6,35.8,30.18,WNW,292,0.0,3.1,66,0.00,,OVC060,0.00,VWS V14.00,2013-02-25 01:59:00,
2013-02-24 18:01:00,46.6,35.8,30.18,WSW,248,0.0,3.1,66,0.00,,OVC060,0.00,VWS V14.00,2013-02-25 02:01:00,
2013-02-24 18:02:00,46.6,35.8,30.15,East,90,0.0,3.1,66,0.00,,OVC060,0.00,VWS V14.00,2013-02-25 02:02:00,
2013-02-24 18:04:00,46.6,36.2,30.15,NW,315,0.0,3.1,67,0.00,,OVC060,0.00,VWS V14.00,2013-02-25 02:04:00,
2013-02-24 18:06:00,46.4,35.7,30.15,NW,315,0.0,3.1,66,0.00,,OVC060,0.00,VWS V14.00,2013-02-25 02:06:00,
2013-02-24 18:07:00,46.4,35.7,30.15,NW,315,0.0,3.1,66,0.00,,OVC060,0.00,VWS V14.00,2013-02-25 02:07:00,
2013-02-24 18:09:00,46.4,35.7,30.15,NW,315,0.0,3.1,66,0.00,,OVC060,0.00,VWS V14.00,2013-02-25 02:09:00,
2013-02-24 18:11:00,46.4,36.0,30.15,WNW,292,0.0,3.1,67,0.00,,OVC060,0.00,VWS V14.00,2013-02-25 02:11:00,
2013-02-24 18:12:00,46.4,36.0,30.15,WNW,292,0.0,3.1,67,0.00,,OVC060,0.00,VWS V14.00,2013-02-25 02:12:00,
2013-02-24 18:14:00,46.2,35.9,30.15,WNW,292,0.0,2.5,67,0.00,,OVC060,0.00,VWS V14.00,2013-02-25 02:14:00,
2013-02-24 18:16:00,46.2,35.9,30.15,WNW,292,0.0,2.5,67,0.00,,OVC060,0.00,VWS V14.00,2013-02-25 02:16:00,
2013-02-24 18:17:00,46.2,35.9,30.15,WSW,248,0.0,2.5,67,0.00,,OVC060,0.00,VWS V14.00,2013-02-25 02:17:00,
2013-02-24 18:19:00,46.2,35.9,30.15,WNW,292,0.0,2.5,67,0.00,,OVC060,0.00,VWS V14.00,2013-02-25 02:19:00,
2013-02-24 18:22:00,46.2,35.9,30.15,WNW,292,0.0,1.3,67,0.00,,OVC060,0.00,VWS V14.00,2013-02-25 02:22:00,
2013-02-24 18:24:00,46.0,35.7,30.15,WSW,248,0.0,2.2,67,0.00,,OVC060,0.00,VWS V14.00,2013-02-25 02:24:00,
2013-02-24 18:26:00,45.9,35.9,30.15,ENE,68,0.0,2.2,68,0.00,,OVC060,0.00,VWS V14.00,2013-02-25 02:26:00,
2013-02-24 18:27:00,45.9,35.9,30.15,ENE,68,0.0,2.2,68,0.00,,OVC060,0.00,VWS V14.00,2013-02-25 02:27:00,
2013-02-24 18:29:00,46.0,35.7,30.15,NNE,22,0.0,2.2,67,0.00,,OVC060,0.00,VWS V14.00,2013-02-25 02:29:00,
2013-02-24 18:31:00,46.0,35.7,30.15,WSW,248,0.0,3.6,67,0.00,,OVC060,0.00,VWS V14.00,2013-02-25 02:31:00,
2013-02-24 18:32:00,46.0,35.7,30.15,WSW,248,0.0,3.6,67,0.00,,OVC060,0.00,VWS V14.00,2013-02-25 02:32:00,
2013-02-24 18:34:00,46.0,35.7,30.15,WNW,292,0.0,3.6,67,0.00,,OVC060,0.00,VWS V14.00,2013-02-25 02:34:00,
2013-02-24 18:36:00,45.9,35.9,30.15,ENE,68,0.0,3.6,68,0.00,,OVC060,0.00,VWS V14.00,2013-02-25 02:36:00,
2013-02-24 18:37:00,45.9,35.9,30.15,ENE,68,0.0,3.6,68,0.00,,OVC060,0.00,VWS V14.00,2013-02-25 02:37:00,
2013-02-24 18:39:00,45.9,35.9,30.15,NNW,338,0.0,3.6,68,0.00,,OVC060,0.00,VWS V14.00,2013-02-25 02:39:00,
2013-02-24 18:41:00,45.7,36.1,30.15,NE,45,0.0,3.6,69,0.00,,OVC060,0.00,VWS V14.00,2013-02-25 02:41:00,
2013-02-24 18:42:00,45.7,36.1,30.15,NE,45,0.0,3.6,69,0.00,,OVC060,0.00,VWS V14.00,2013-02-25 02:42:00,
2013-02-24 18:44:00,45.5,35.9,30.15,WNW,292,0.0,3.6,69,0.00,,OVC060,0.00,VWS V14.00,2013-02-25 02:44:00,
2013-02-24 18:46:00,45.3,35.8,30.15,East,90,0.0,3.6,69,0.00,,OVC060,0.00,VWS V14.00,2013-02-25 02:46:00,
2013-02-24 18:47:00,45.3,35.8,30.15,East,90,0.0,3.6,69,0.00,,OVC060,0.00,VWS V14.00,2013-02-25 02:47:00,
2013-02-24 18:49:00,45.3,35.8,30.15,SE,135,0.0,1.1,69,0.00,,OVC060,0.00,VWS V14.00,2013-02-25 02:49:00,
2013-02-24 18:52:00,45.3,35.8,30.15,WNW,292,0.0,0.9,69,0.00,,OVC060,0.00,VWS V14.00,2013-02-25 02:52:00,
2013-02-24 18:54:00,45.1,36.0,30.15,WNW,292,0.0,0.9,70,0.00,,OVC060,0.00,VWS V14.00,2013-02-25 02:54:00,
2013-02-24 18:57:00,45.1,36.0,30.15,NE,45,0.0,0.9,70,0.00,,OVC060,0.00,VWS V14.00,2013-02-25 02:57:00,
2013-02-24 18:59:00,45.0,35.8,30.15,SE,135,0.0,0.9,70,0.00,,OVC060,0.00,VWS V14.00,2013-02-25 02:59:00,
2013-02-24 19:02:00,44.8,35.6,30.15,ENE,68,0.0,0.0,70,0.00,,OVC060,0.00,VWS V14.00,2013-02-25 03:02:00,
2013-02-24 19:04:00,44.6,35.8,30.15,ESE,112,0.0,0.0,71,0.00,,OVC060,0.00,VWS V14.00,2013-02-25 03:04:00,
2013-02-24 19:07:00,44.6,35.8,30.15,East,90,0.0,0.0,71,0.00,,OVC060,0.00,VWS V14.00,2013-02-25 03:07:00,
2013-02-24 19:10:00,44.6,35.8,30.15,SE,135,0.0,0.0,71,0.00,,OVC060,0.00,VWS V14.00,2013-02-25 03:10:00,
2013-02-24 19:12:00,44.6,35.8,30.15,SSW,202,0.0,0.0,71,0.00,,OVC060,0.00,VWS V14.00,2013-02-25 03:12:00,
2013-02-24 19:15:00,44.4,35.6,30.15,ESE,112,0.0,0.0,71,0.00,,OVC060,0.00,VWS V14.00,2013-02-25 03:15:00,
2013-02-24 19:17:00,44.4,36.0,30.15,East,90,0.0,0.0,72,0.00,,OVC060,0.00,VWS V14.00,2013-02-25 03:17:00,
2013-02-24 19:20:00,44.4,36.0,30.12,SE,135,0.0,0.0,72,0.00,,OVC060,0.00,VWS V14.00,2013-02-25 03:20:00,
2013-02-24 19:22:00,44.4,35.6,30.12,WNW,292,0.0,0.0,71,0.00,,OVC060,0.00,VWS V14.00,2013-02-25 03:22:00,
2013-02-24 19:25:00,44.2,35.5,30.12,ENE,68,0.0,0.0,71,0.00,,OVC060,0.00,VWS V14.00,2013-02-25 03:25:00,
2013-02-24 19:27:00,44.2,35.5,30.12,ESE,112,0.0,2.2,71,0.00,,OVC060,0.00,VWS V14.00,2013-02-25 03:27:00,
2013-02-24 19:30:00,44.2,35.5,30.12,SSE,158,2.0,2.0,71,0.00,,OVC060,0.00,VWS V14.00,2013-02-25 03:30:00,
2013-02-24 19:32:00,44.2,35.5,30.12,SSW,202,0.0,2.0,71,0.00,,OVC060,0.00,VWS V14.00,2013-02-25 03:32:00,
2013-02-24 19:35:00,44.1,35.6,30.12,East,90,0.0,2.0,72,0.00,,OVC060,0.00,VWS V14.00,2013-02-25 03:35:00,
2013-02-24 19:37:00,44.1,35.6,30.12,NE,45,0.0,0.0,72,0.00,,OVC060,0.00,VWS V14.00,2013-02-25 03:37:00,
2013-02-24 19:40:00,43.9,35.5,30.12,WSW,248,0.0,0.0,72,0.00,,OVC060,0.00,VWS V14.00,2013-02-25 03:40:00,
2013-02-24 19:42:00,43.9,35.5,30.12,West,270,0.0,0.0,72,0.00,,OVC060,0.00,VWS V14.00,2013-02-25 03:42:00,
2013-02-24 19:45:00,43.9,35.5,30.12,East,90,0.9,2.7,72,0.00,,OVC060,0.00,VWS V14.00,2013-02-25 03:45:00,
2013-02-24 19:47:00,43.7,35.3,30.12,East,90,0.0,2.7,72,0.00,,OVC060,0.00,VWS V14.00,2013-02-25 03:47:00,
2013-02-24 19:48:00,43.7,35.3,30.12,East,90,0.0,2.7,72,0.00,,OVC060,0.00,VWS V14.00,2013-02-25 03:48:00,
2013-02-24 19:50:00,43.7,35.3,30.12,NNW,338,0.9,2.7,72,0.00,,OVC060,0.00,VWS V14.00,2013-02-25 03:50:00,
2013-02-24 19:52:00,43.7,34.9,30.12,North,0,0.0,2.7,71,0.00,,OVC060,0.00,VWS V14.00,2013-02-25 03:52:00,
2013-02-24 19:53:00,43.9,35.1,30.12,SE,135,2.5,2.7,71,0.00,,OVC060,0.00,VWS V14.00,2013-02-25 03:53:00,
2013-02-24 19:55:00,43.5,35.1,30.12,WSW,248,1.3,2.7,72,0.00,,OVC060,0.00,VWS V14.00,2013-02-25 03:55:00,
2013-02-24 19:57:00,43.5,35.1,30.12,WNW,292,2.5,3.6,72,0.00,,OVC060,0.00,VWS V14.00,2013-02-25 03:57:00,
2013-02-24 19:58:00,43.7,34.9,30.12,WNW,292,2.5,3.6,71,0.00,,OVC060,0.00,VWS V14.00,2013-02-25 03:58:00,
2013-02-24 20:00:00,43.7,34.9,30.12,West,270,1.1,3.6,71,0.00,,OVC060,0.00,VWS V14.00,2013-02-25 04:00:00,
2013-02-24 20:02:00,43.9,35.1,30.12,East,90,0.0,3.6,71,0.00,,OVC060,0.00,VWS V14.00,2013-02-25 04:02:00,
2013-02-24 20:03:00,43.9,35.1,30.12,WNW,292,0.0,3.6,71,0.00,,OVC060,0.00,VWS V14.00,2013-02-25 04:03:00,
2013-02-24 20:06:00,43.7,34.9,30.12,NE,45,0.0,3.6,71,0.00,,OVC060,0.00,VWS V14.00,2013-02-25 04:06:00,
2013-02-24 20:07:00,43.9,35.1,30.12,NNW,338,0.0,3.6,71,0.00,,OVC060,0.00,VWS V14.00,2013-02-25 04:07:00,
2013-02-24 20:08:00,43.9,35.1,30.12,WNW,292,0.0,3.6,71,0.00,,OVC060,0.00,VWS V14.00,2013-02-25 04:08:00,
2013-02-24 20:11:00,43.7,34.9,30.09,West,270,0.0,3.6,71,0.00,,OVC060,0.00,VWS V14.00,2013-02-25 04:11:00,
2013-02-24 20:12:00,43.7,34.9,30.09,SSW,202,0.0,3.6,71,0.00,,OVC060,0.00,VWS V14.00,2013-02-25 04:12:00,
2013-02-24 20:13:00,43.7,34.9,30.09,SSW,202,0.0,3.6,71,0.00,,OVC060,0.00,VWS V14.00,2013-02-25 04:13:00,
2013-02-24 20:16:00,43.7,35.3,30.09,North,0,1.3,3.1,72,0.00,,OVC060,0.00,VWS V14.00,2013-02-25 04:16:00,
2013-02-24 20:17:00,44.1,35.3,30.12,NE,45,2.9,3.1,71,0.00,,OVC060,0.00,VWS V14.00,2013-02-25 04:17:00,
2013-02-24 20:18:00,44.1,35.3,30.12,ENE,68,2.0,3.1,71,0.00,,OVC060,0.00,VWS V14.00,2013-02-25 04:18:00,
2013-02-24 20:21:00,44.1,35.3,30.12,ENE,68,4.3,4.3,71,0.00,,OVC060,0.00,VWS V14.00,2013-02-25 04:21:00,
2013-02-24 20:22:00,44.1,35.3,30.12,East,90,2.7,4.3,71,0.00,,OVC060,0.00,VWS V14.00,2013-02-25 04:22:00,
2013-02-24 20:23:00,44.1,35.3,30.12,East,90,2.7,4.3,71,0.00,,OVC060,0.00,VWS V14.00,2013-02-25 04:23:00,
2013-02-24 20:26:00,44.1,35.3,30.12,WSW,248,0.0,5.8,71,0.00,,OVC060,0.00,VWS V14.00,2013-02-25 04:26:00,
2013-02-24 20:27:00,44.1,35.3,30.12,WSW,248,0.0,5.8,71,0.00,,OVC060,0.00,VWS V14.00,2013-02-25 04:27:00,
2013-02-24 20:28:00,43.9,35.5,30.12,SE,135,1.1,5.8,72,0.00,,OVC060,0.00,VWS V14.00,2013-02-25 04:28:00,
2013-02-24 20:31:00,43.9,35.5,30.12,WSW,248,3.1,5.8,72,0.00,,OVC060,0.00,VWS V14.00,2013-02-25 04:31:00,
2013-02-24 20:32:00,43.9,35.5,30.09,East,90,0.9,5.8,72,0.00,,OVC060,0.00,VWS V14.00,2013-02-25 04:32:00,
2013-02-24 20:33:00,44.1,35.3,30.09,NNE,22,4.3,5.8,71,0.00,,OVC060,0.00,VWS V14.00,2013-02-25 04:33:00,
2013-02-24 20:36:00,44.2,35.1,30.09,East,90,6.7,6.7,70,0.00,,OVC060,0.00,VWS V14.00,2013-02-25 04:36:00,
2013-02-24 20:37:00,44.2,35.1,30.09,East,90,2.0,6.7,70,0.00,,OVC060,0.00,VWS V14.00,2013-02-25 04:37:00,
2013-02-24 20:38:00,44.2,35.1,30.09,East,90,2.0,6.7,70,0.00,,OVC060,0.00,VWS V14.00,2013-02-25 04:38:00,
2013-02-24 20:41:00,44.4,35.3,30.09,East,90,2.2,6.7,70,0.00,,OVC060,0.00,VWS V14.00,2013-02-25 04:41:00,
2013-02-24 20:42:00,44.4,35.3,30.09,NE,45,4.9,6.7,70,0.00,,OVC060,0.00,VWS V14.00,2013-02-25 04:42:00,
2013-02-24 20:43:00,44.4,35.3,30.09,East,90,6.0,6.7,70,0.00,,OVC060,0.00,VWS V14.00,2013-02-25 04:43:00,
2013-02-24 20:48:00,44.4,35.3,30.09,East,90,7.4,7.4,70,0.00,,OVC070,0.00,VWS V14.00,2013-02-25 04:48:00,
2013-02-24 20:53:00,44.4,35.3,30.09,North,0,2.5,7.4,70,0.00,,OVC070,0.00,VWS V14.00,2013-02-25 04:53:00,
2013-02-24 20:58:00,44.4,35.3,30.09,NE,45,5.6,7.4,70,0.00,,OVC070,0.00,VWS V14.00,2013-02-25 04:58:00,
2013-02-24 21:00:00,44.4,34.9,30.09,East,90,4.0,7.4,69,0.00,,OVC070,0.00,VWS V14.00,2013-02-25 05:00:00,
2013-02-24 21:05:00,44.4,34.9,30.09,East,90,4.0,6.3,69,0.00,,OVC070,0.00,VWS V14.00,2013-02-25 05:05:00,
2013-02-24 21:10:00,44.6,34.7,30.09,NE,45,6.0,13.2,68,0.00,,OVC070,0.00,VWS V14.00,2013-02-25 05:10:00,
2013-02-24 21:15:00,44.6,34.7,30.09,ESE,112,0.0,13.2,68,0.00,,OVC070,0.00,VWS V14.00,2013-02-25 05:15:00,
2013-02-24 21:20:00,44.4,35.3,30.06,ESE,112,2.5,13.2,70,0.00,,OVC070,0.00,VWS V14.00,2013-02-25 05:20:00,
2013-02-24 21:25:00,44.4,35.3,30.06,NE,45,2.9,13.2,70,0.00,,OVC070,0.00,VWS V14.00,2013-02-25 05:25:00,
2013-02-24 21:30:00,44.2,35.1,30.06,East,90,7.8,7.8,70,0.00,,OVC070,0.00,VWS V14.00,2013-02-25 05:30:00,
2013-02-24 21:35:00,44.2,35.1,30.06,NE,45,1.1,7.8,70,0.00,,OVC060,0.00,VWS V14.00,2013-02-25 05:35:00,
2013-02-24 21:40:00,44.1,35.3,30.06,WNW,292,2.2,7.8,71,0.00,,OVC060,0.00,VWS V14.00,2013-02-25 05:40:00,
2013-02-24 21:45:00,44.1,35.3,30.06,East,90,0.0,7.8,71,0.00,,OVC060,0.00,VWS V14.00,2013-02-25 05:45:00,
2013-02-24 21:50:00,44.1,35.3,30.06,NE,45,1.6,3.6,71,0.00,,OVC050,0.00,VWS V14.00,2013-02-25 05:50:00,
2013-02-24 21:55:00,43.9,35.5,30.06,NNW,338,3.1,3.1,72,0.00,,OVC050,0.00,VWS V14.00,2013-02-25 05:55:00,
2013-02-24 22:00:00,44.1,35.3,30.06,ENE,68,2.0,3.1,71,0.00,,OVC050,0.00,VWS V14.00,2013-02-25 06:00:00,
2013-02-24 22:05:00,43.9,35.5,30.03,NNE,22,2.7,3.8,72,0.00,,OVC050,0.00,VWS V14.00,2013-02-25 06:05:00,
2013-02-24 22:10:00,43.9,35.5,30.03,NE,45,3.1,3.8,72,0.00,,OVC050,0.00,VWS V14.00,2013-02-25 06:10:00,
2013-02-24 22:15:00,43.9,35.5,30.03,NW,315,3.1,3.8,72,0.00,,OVC050,0.00,VWS V14.00,2013-02-25 06:15:00,
2013-02-24 22:20:00,43.7,35.3,30.03,East,90,1.6,3.8,72,0.00,,OVC050,0.00,VWS V14.00,2013-02-25 06:20:00,
2013-02-24 22:25:00,43.9,35.5,30.03,NE,45,2.9,5.4,72,0.00,,OVC050,0.00,VWS V14.00,2013-02-25 06:25:00,
2013-02-24 22:30:00,43.9,35.5,30.03,ESE,112,2.9,5.4,72,0.00,,OVC050,0.00,VWS V14.00,2013-02-25 06:30:00,
2013-02-24 22:35:00,43.7,35.6,30.03,NW,315,2.0,5.4,73,0.00,,OVC050,0.00,VWS V14.00,2013-02-25 06:35:00,
2013-02-24 22:40:00,43.7,35.6,30.03,East,90,3.4,4.9,73,0.00,,OVC050,0.00,VWS V14.00,2013-02-25 06:40:00,
2013-02-24 22:41:00,43.7,35.6,30.03,East,90,3.4,4.9,73,0.00,,OVC050,0.00,VWS V14.00,2013-02-25 06:41:00,
2013-02-24 22:46:00,43.7,35.6,30.03,ENE,68,1.6,4.0,73,0.00,,OVC050,0.00,VWS V14.00,2013-02-25 06:46:00,
2013-02-24 22:51:00,43.7,35.6,30.00,NNE,22,5.6,6.0,73,0.00,,OVC060,0.00,VWS V14.00,2013-02-25 06:51:00,
2013-02-24 22:56:00,43.7,35.6,30.00,SSE,158,1.3,6.0,73,0.00,,OVC060,0.00,VWS V14.00,2013-02-25 06:56:00,
2013-02-24 23:01:00,43.7,35.6,30.00,NW,315,2.7,6.0,73,0.00,,OVC060,0.00,VWS V14.00,2013-02-25 07:01:00,
2013-02-24 23:06:00,43.9,35.8,30.00,NNE,22,2.7,5.6,73,0.00,,OVC060,0.00,VWS V14.00,2013-02-25 07:06:00,
2013-02-24 23:11:00,43.9,35.8,30.00,North,0,4.7,4.7,73,0.00,,OVC060,0.00,VWS V14.00,2013-02-25 07:11:00,
2013-02-24 23:16:00,43.9,35.8,30.00,WNW,292,1.1,6.0,73,0.00,,OVC060,0.00,VWS V14.00,2013-02-25 07:16:00,
2013-02-24 23:21:00,43.9,35.8,30.00,NNE,22,2.7,6.0,73,0.00,,OVC060,0.00,VWS V14.00,2013-02-25 07:21:00,
2013-02-24 23:26:00,44.1,36.0,30.00,West,270,2.7,6.9,73,0.00,,OVC060,0.00,VWS V14.00,2013-02-25 07:26:00,
2013-02-24 23:31:00,43.9,36.1,30.00,NNW,338,2.9,6.9,74,0.00,,OVC060,0.00,VWS V14.00,2013-02-25 07:31:00,
2013-02-24 23:36:00,43.7,36.0,30.00,NE,45,0.0,6.9,74,0.00,,OVC065,0.00,VWS V14.00,2013-02-25 07:36:00,
2013-02-24 23:41:00,43.9,36.1,30.00,NNW,338,3.8,4.7,74,0.00,,OVC065,0.00,VWS V14.00,2013-02-25 07:41:00,
2013-02-24 23:46:00,43.9,36.1,30.00,ENE,68,2.9,4.7,74,0.00,,OVC065,0.00,VWS V14.00,2013-02-25 07:46:00,
2013-02-24 23:51:00,44.1,36.3,30.00,SE,135,3.4,3.8,74,0.00,,OVC065,0.00,VWS V14.00,2013-02-25 07:51:00,
2013-02-24 23:56:00,44.1,36.3,30.00,NNW,338,3.1,3.8,74,0.00,,OVC065,0.00,VWS V14.00,2013-02-25 07:56:00,